SR-198 : Just West of SR-99 Atmospheric Data: 06/24/2022 Summary  Detailed Graphs  Station List

  Temperature     Wind Precipitation Visibility
Timestamp Air Wet
Bulb
Dew-
point
24-hr
Max
24-hr
Min
Relative
Humidity
Atmospheric
Pressure
Avg
Speed
Avg
Dir
Spot
Speed
Spot
Dir
Max
Speed
Max
Dir
  Rate Situation Start End 1 hr 3 hr 6 hr 12 hr 24 hr   Situation
Date Time °F °F °F °F °F % in Hg mph ° mph ° mph ° Y/N in/hr text Date Time Date Time in in in in in mi text
06/24/2022 12:00 AM 78.44 64.94 57.20 100.22 65.66 48.0 32.46 7.83 W 6.49 W 10.96 NW No 0.000 No Precipitation 06/22/2022 02:12 AM 06/22/2022 02:19 AM 0.000 0.000 0.000 0.000 0.000 1.24 Clear
06/24/2022 12:01 AM 78.62 64.94 57.20 100.22 65.66 48.0 32.46 7.38 NW 5.82 W 10.96 NW No 0.000 No Precipitation 06/22/2022 02:12 AM 06/22/2022 02:19 AM 0.000 0.000 0.000 0.000 0.000 1.24 Clear
06/24/2022 12:02 AM 78.62 65.12 57.20 100.22 65.66 48.0 32.46 6.93 W 5.37 W 10.96 NW No 0.000 No Precipitation 06/22/2022 02:12 AM 06/22/2022 02:19 AM 0.000 0.000 0.000 0.000 0.000 1.24 Clear
06/24/2022 12:03 AM 78.44 64.94 57.20 100.22 65.66 48.0 32.46 6.49 W 7.61 NW 10.96 NW No 0.000 No Precipitation 06/22/2022 02:12 AM 06/22/2022 02:19 AM 0.000 0.000 0.000 0.000 0.000 1.24 Clear
06/24/2022 12:04 AM 78.44 64.94 57.02 100.22 65.66 48.0 32.46 6.71 W 6.04 NW 10.96 NW No 0.000 No Precipitation 06/22/2022 02:12 AM 06/22/2022 02:19 AM 0.000 0.000 0.000 0.000 0.000 1.24 Clear
06/24/2022 12:05 AM 78.44 64.94 57.20 100.22 65.66 48.0 32.46 6.93 NW 4.92 NW 10.96 NW No 0.000 No Precipitation 06/22/2022 02:12 AM 06/22/2022 02:19 AM 0.000 0.000 0.000 0.000 0.000 1.24 Clear
06/24/2022 12:06 AM 78.26 64.94 57.20 100.22 65.66 48.0 32.46 6.71 NW 7.38 NW 10.96 NW No 0.000 No Precipitation 06/22/2022 02:12 AM 06/22/2022 02:19 AM 0.000 0.000 0.000 0.000 0.000 1.24 Clear
06/24/2022 12:07 AM 78.26 64.94 57.20 100.22 65.66 48.0 32.46 6.49 NW 8.05 NW 10.51 NW No 0.000 No Precipitation 06/22/2022 02:12 AM 06/22/2022 02:19 AM 0.000 0.000 0.000 0.000 0.000 1.24 Clear
06/24/2022 12:08 AM 78.08 64.76 57.20 100.22 65.66 48.0 32.46 6.71 NW 6.49 NW 10.07 W No 0.000 No Precipitation 06/22/2022 02:12 AM 06/22/2022 02:19 AM 0.000 0.000 0.000 0.000 0.000 1.24 Clear
06/24/2022 12:09 AM 78.08 64.76 57.20 100.22 65.66 48.0 32.46 6.71 NW 6.93 NW 9.84 W No 0.000 No Precipitation 06/22/2022 02:12 AM 06/22/2022 02:19 AM 0.000 0.000 0.000 0.000 0.000 1.24 Clear
06/24/2022 12:10 AM 78.08 64.76 57.02 100.22 65.66 48.0 32.46 6.26 NW 6.04 NW 9.17 NW No 0.000 No Precipitation 06/22/2022 02:12 AM 06/22/2022 02:19 AM 0.000 0.000 0.000 0.000 0.000 1.24 Clear
06/24/2022 12:11 AM 78.08 64.76 57.02 100.22 65.66 48.0 32.46 6.49 NW 9.40 NW 9.40 NW No 0.000 No Precipitation 06/22/2022 02:12 AM 06/22/2022 02:19 AM 0.000 0.000 0.000 0.000 0.000 1.24 Clear
06/24/2022 12:12 AM 78.08 64.58 56.84 100.22 65.66 48.0 32.46 6.93 NW 7.61 NW 9.40 NW No 0.000 No Precipitation 06/22/2022 02:12 AM 06/22/2022 02:19 AM 0.000 0.000 0.000 0.000 0.000 1.24 Clear
06/24/2022 12:13 AM 78.08 64.58 56.84 100.22 65.66 48.0 32.46 6.93 NW 6.93 NW 9.40 NW No 0.000 No Precipitation 06/22/2022 02:12 AM 06/22/2022 02:19 AM 0.000 0.000 0.000 0.000 0.000 1.24 Clear
06/24/2022 12:14 AM 78.08 64.58 56.66 100.22 65.66 47.0 32.46 6.49 NW 8.50 NW 9.40 NW No 0.000 No Precipitation 06/22/2022 02:12 AM 06/22/2022 02:19 AM 0.000 0.000 0.000 0.000 0.000 1.24 Clear
06/24/2022 12:15 AM 78.08 64.58 56.66 100.22 65.66 47.0 32.46 6.71 W 7.61 W 9.40 NW No 0.000 No Precipitation 06/22/2022 02:12 AM 06/22/2022 02:19 AM 0.000 0.000 0.000 0.000 0.000 1.24 Clear
06/24/2022 12:16 AM 78.08 64.58 56.66 100.22 65.66 47.0 32.46 6.26 NW 6.04 NW 9.40 NW No 0.000 No Precipitation 06/22/2022 02:12 AM 06/22/2022 02:19 AM 0.000 0.000 0.000 0.000 0.000 1.24 Clear
06/24/2022 12:17 AM 78.08 64.58 56.66 100.22 65.66 47.0 32.46 6.26 NW 6.49 NW 9.40 NW No 0.000 No Precipitation 06/22/2022 02:12 AM 06/22/2022 02:19 AM 0.000 0.000 0.000 0.000 0.000 1.24 Clear
06/24/2022 12:18 AM 77.90 64.58 56.66 100.22 65.66 48.0 32.46 6.04 NW 5.37 NW 9.40 NW No 0.000 No Precipitation 06/22/2022 02:12 AM 06/22/2022 02:19 AM 0.000 0.000 0.000 0.000 0.000 1.24 Clear
06/24/2022 12:19 AM 77.90 64.40 56.66 100.22 65.66 48.0 32.46 5.59 NW 6.26 NW 9.40 NW No 0.000 No Precipitation 06/22/2022 02:12 AM 06/22/2022 02:19 AM 0.000 0.000 0.000 0.000 0.000 1.24 Clear
06/24/2022 12:20 AM 77.72 64.40 56.66 100.22 65.66 48.0 32.46 5.59 NW 5.82 NW 9.40 NW No 0.000 No Precipitation 06/22/2022 02:12 AM 06/22/2022 02:19 AM 0.000 0.000 0.000 0.000 0.000 1.24 Clear
06/24/2022 12:21 AM 77.72 64.40 56.66 100.22 65.66 48.0 32.46 5.37 NW 5.14 NW 8.95 W No 0.000 No Precipitation 06/22/2022 02:12 AM 06/22/2022 02:19 AM 0.000 0.000 0.000 0.000 0.000 1.24 Clear
06/24/2022 12:22 AM 77.54 64.40 56.66 100.22 65.66 48.0 32.46 5.59 NW 6.71 W 8.95 W No 0.000 No Precipitation 06/22/2022 02:12 AM 06/22/2022 02:19 AM 0.000 0.000 0.000 0.000 0.000 1.24 Clear
06/24/2022 12:23 AM 77.54 64.22 56.48 100.22 65.66 48.0 32.46 6.26 W 6.26 W 8.95 W No 0.000 No Precipitation 06/22/2022 02:12 AM 06/22/2022 02:19 AM 0.000 0.000 0.000 0.000 0.000 1.24 Clear
06/24/2022 12:24 AM 77.36 64.22 56.66 100.22 65.66 48.0 32.46 5.82 W 5.59 NW 8.50 NW No 0.000 No Precipitation 06/22/2022 02:12 AM 06/22/2022 02:19 AM 0.000 0.000 0.000 0.000 0.000 1.24 Clear
06/24/2022 12:25 AM 77.36 64.40 56.66 100.22 65.66 48.0 32.46 5.82 W 6.04 W 8.50 NW No 0.000 No Precipitation 06/22/2022 02:12 AM 06/22/2022 02:19 AM 0.000 0.000 0.000 0.000 0.000 1.24 Clear
06/24/2022 12:26 AM 77.36 64.22 56.66 100.22 65.66 48.0 32.46 6.26 W 5.82 W 7.83 W No 0.000 No Precipitation 06/22/2022 02:12 AM 06/22/2022 02:19 AM 0.000 0.000 0.000 0.000 0.000 1.24 Clear
06/24/2022 12:27 AM 77.36 64.22 56.66 100.22 65.66 49.0 32.46 6.26 W 5.37 W 7.83 W No 0.000 No Precipitation 06/22/2022 02:12 AM 06/22/2022 02:19 AM 0.000 0.000 0.000 0.000 0.000 1.24 Clear
06/24/2022 12:28 AM 77.36 64.22 56.66 100.22 65.66 49.0 32.46 6.04 W 3.58 W 7.83 NW No 0.000 No Precipitation 06/22/2022 02:12 AM 06/22/2022 02:19 AM 0.000 0.000 0.000 0.000 0.000 1.24 Clear
06/24/2022 12:29 AM 77.36 64.22 56.48 100.22 65.66 48.0 32.46 5.82 W 5.14 W 8.50 W No 0.000 No Precipitation 06/22/2022 02:12 AM 06/22/2022 02:19 AM 0.000 0.000 0.000 0.000 0.000 1.24 Clear
06/24/2022 12:30 AM 77.36 64.22 56.48 100.22 65.66 48.0 32.46 5.37 W 4.92 NW 8.50 W No 0.000 No Precipitation 06/22/2022 02:12 AM 06/22/2022 02:19 AM 0.000 0.000 0.000 0.000 0.000 1.24 Clear
06/24/2022 12:31 AM 77.36 64.04 56.12 100.22 65.66 48.0 32.46 5.14 NW 4.25 W 8.50 W No 0.000 No Precipitation 06/22/2022 02:12 AM 06/22/2022 02:19 AM 0.000 0.000 0.000 0.000 0.000 1.24 Clear
06/24/2022 12:32 AM 77.36 64.22 56.30 100.22 65.66 48.0 32.46 4.92 NW 5.59 NW 8.50 W No 0.000 No Precipitation 06/22/2022 02:12 AM 06/22/2022 02:19 AM 0.000 0.000 0.000 0.000 0.000 1.24 Clear
06/24/2022 12:33 AM 77.18 64.04 56.30 100.22 65.66 48.0 32.46 4.47 NW 4.70 NW 8.50 W No 0.000 No Precipitation 06/22/2022 02:12 AM 06/22/2022 02:19 AM 0.000 0.000 0.000 0.000 0.000 1.24 Clear
06/24/2022 12:34 AM 77.18 64.04 56.30 100.22 65.66 48.0 32.46 4.47 NW 4.70 NW 8.50 W No 0.000 No Precipitation 06/22/2022 02:12 AM 06/22/2022 02:19 AM 0.000 0.000 0.000 0.000 0.000 1.24 Clear
06/24/2022 12:35 AM 77.00 64.04 56.48 100.22 65.66 49.0 32.46 4.70 NW 7.16 NW 8.50 NW No 0.000 No Precipitation 06/22/2022 02:12 AM 06/22/2022 02:19 AM 0.000 0.000 0.000 0.000 0.000 1.24 Clear
06/24/2022 12:36 AM 77.00 64.04 56.48 100.22 65.66 49.0 32.46 4.92 NW 4.70 NW 8.50 NW No 0.000 No Precipitation 06/22/2022 02:12 AM 06/22/2022 02:19 AM 0.000 0.000 0.000 0.000 0.000 1.24 Clear
06/24/2022 12:37 AM 77.00 64.04 56.48 100.22 65.66 49.0 32.46 4.47 NW 4.70 NW 8.50 NW No 0.000 No Precipitation 06/22/2022 02:12 AM 06/22/2022 02:19 AM 0.000 0.000 0.000 0.000 0.000 1.24 Clear
06/24/2022 12:38 AM 76.82 64.22 56.48 100.22 65.66 49.0 32.46 4.03 NW 4.25 N 8.50 NW No 0.000 No Precipitation 06/22/2022 02:12 AM 06/22/2022 02:19 AM 0.000 0.000 0.000 0.000 0.000 1.24 Clear
06/24/2022 12:39 AM 76.64 64.22 57.02 100.22 65.66 50.0 32.46 4.25 N 5.37 N 8.50 NW No 0.000 No Precipitation 06/22/2022 02:12 AM 06/22/2022 02:19 AM 0.000 0.000 0.000 0.000 0.000 1.24 Clear
06/24/2022 12:40 AM 76.46 64.40 57.38 100.22 65.66 51.0 32.46 4.47 N 4.70 N 8.50 NW No 0.000 No Precipitation 06/22/2022 02:12 AM 06/22/2022 02:19 AM 0.000 0.000 0.000 0.000 0.000 1.24 Clear
06/24/2022 12:41 AM 76.10 64.40 57.56 100.22 65.66 52.0 32.46 4.70 N 2.68 N 8.50 NW No 0.000 No Precipitation 06/22/2022 02:12 AM 06/22/2022 02:19 AM 0.000 0.000 0.000 0.000 0.000 1.24 Clear
06/24/2022 12:42 AM 75.92 64.04 57.20 100.22 65.66 52.0 32.46 4.03 N 3.58 N 8.50 NW No 0.000 No Precipitation 06/22/2022 02:12 AM 06/22/2022 02:19 AM 0.000 0.000 0.000 0.000 0.000 1.24 Clear
06/24/2022 12:43 AM 75.92 64.04 57.20 100.22 65.66 52.0 32.46 4.47 N 6.93 NW 8.50 NW No 0.000 No Precipitation 06/22/2022 02:12 AM 06/22/2022 02:19 AM 0.000 0.000 0.000 0.000 0.000 1.24 Clear
06/24/2022 12:44 AM 75.92 63.86 56.66 100.22 65.66 51.0 32.46 4.92 NW 4.03 NW 7.16 NW No 0.000 No Precipitation 06/22/2022 02:12 AM 06/22/2022 02:19 AM 0.000 0.000 0.000 0.000 0.000 1.24 Clear
06/24/2022 12:45 AM 76.10 63.68 56.30 100.22 65.66 50.0 32.46 4.70 NW 4.25 NW 7.16 NW No 0.000 No Precipitation 06/22/2022 02:12 AM 06/22/2022 02:19 AM 0.000 0.000 0.000 0.000 0.000 1.24 Clear
06/24/2022 12:46 AM 76.10 63.86 56.66 100.22 65.66 50.0 32.46 4.47 NW 3.58 NW 7.16 NW No 0.000 No Precipitation 06/22/2022 02:12 AM 06/22/2022 02:19 AM 0.000 0.000 0.000 0.000 0.000 1.24 Clear
06/24/2022 12:47 AM 76.10 63.86 56.48 100.22 65.66 50.0 32.46 4.47 NW 4.47 NW 7.16 NW No 0.000 No Precipitation 06/22/2022 02:12 AM 06/22/2022 02:19 AM 0.000 0.000 0.000 0.000 0.000 1.24 Clear
06/24/2022 12:48 AM 76.10 63.86 56.48 100.22 65.66 50.0 32.46 4.92 NW 5.37 NW 7.16 NW No 0.000 No Precipitation 06/22/2022 02:12 AM 06/22/2022 02:19 AM 0.000 0.000 0.000 0.000 0.000 1.24 Clear
06/24/2022 12:49 AM 76.10 63.86 56.48 100.22 65.66 50.0 32.46 5.14 NW 5.59 NW 7.16 NW No 0.000 No Precipitation 06/22/2022 02:12 AM 06/22/2022 02:19 AM 0.000 0.000 0.000 0.000 0.000 1.24 Clear
06/24/2022 12:50 AM 76.10 63.86 56.48 100.22 65.66 50.0 32.46 4.47 NW 4.47 NW 7.16 NW No 0.000 No Precipitation 06/22/2022 02:12 AM 06/22/2022 02:19 AM 0.000 0.000 0.000 0.000 0.000 1.24 Clear
06/24/2022 12:51 AM 76.28 63.86 56.48 100.22 65.66 50.0 32.46 4.92 NW 5.82 NW 7.61 NW No 0.000 No Precipitation 06/22/2022 02:12 AM 06/22/2022 02:19 AM 0.000 0.000 0.000 0.000 0.000 1.24 Clear
06/24/2022 12:52 AM 76.28 63.68 56.30 100.22 65.66 50.0 32.46 5.59 NW 6.04 N 7.61 NW No 0.000 No Precipitation 06/22/2022 02:12 AM 06/22/2022 02:19 AM 0.000 0.000 0.000 0.000 0.000 1.24 Clear
06/24/2022 12:53 AM 76.28 63.86 56.48 100.22 65.66 50.0 32.46 5.37 NW 5.14 NW 7.61 NW No 0.000 No Precipitation 06/22/2022 02:12 AM 06/22/2022 02:19 AM 0.000 0.000 0.000 0.000 0.000 1.24 Clear
06/24/2022 12:54 AM 76.10 63.86 56.66 100.22 65.66 51.0 32.46 5.14 N 4.47 N 7.61 NW No 0.000 No Precipitation 06/22/2022 02:12 AM 06/22/2022 02:19 AM 0.000 0.000 0.000 0.000 0.000 1.24 Clear
06/24/2022 12:55 AM 76.10 63.86 56.84 100.22 65.66 51.0 32.46 4.70 N 5.37 N 7.61 NW No 0.000 No Precipitation 06/22/2022 02:12 AM 06/22/2022 02:19 AM 0.000 0.000 0.000 0.000 0.000 1.24 Clear
06/24/2022 12:56 AM 75.92 64.04 57.02 100.22 65.66 52.0 32.46 4.47 N 3.13 N 7.61 NW No 0.000 No Precipitation 06/22/2022 02:12 AM 06/22/2022 02:19 AM 0.000 0.000 0.000 0.000 0.000 1.24 Clear
06/24/2022 12:57 AM 75.92 63.86 56.66 100.22 65.66 51.0 32.46 4.03 N 3.80 N 7.61 NW No 0.000 No Precipitation 06/22/2022 02:12 AM 06/22/2022 02:19 AM 0.000 0.000 0.000 0.000 0.000 1.24 Clear
06/24/2022 12:58 AM 75.74 63.86 56.84 100.22 65.66 52.0 32.46 4.25 N 4.03 N 7.61 NW No 0.000 No Precipitation 06/22/2022 02:12 AM 06/22/2022 02:19 AM 0.000 0.000 0.000 0.000 0.000 1.24 Clear
06/24/2022 12:59 AM 75.74 63.86 56.84 100.22 65.66 52.0 32.46 4.25 N 3.36 N 7.61 NW No 0.000 No Precipitation 06/22/2022 02:12 AM 06/22/2022 02:19 AM 0.000 0.000 0.000 0.000 0.000 1.24 Clear
06/24/2022 01:00 AM 75.74 63.68 56.66 100.22 65.66 51.0 32.46 3.80 N 4.47 NW 6.71 NW No 0.000 No Precipitation 06/22/2022 02:12 AM 06/22/2022 02:19 AM 0.000 0.000 0.000 0.000 0.000 1.24 Clear
06/24/2022 01:01 AM 75.74 63.68 56.48 100.22 65.66 51.0 32.46 4.03 NW 4.25 NW 6.49 NW No 0.000 No Precipitation 06/22/2022 02:12 AM 06/22/2022 02:19 AM 0.000 0.000 0.000 0.000 0.000 1.24 Clear
06/24/2022 01:02 AM 75.74 63.68 56.66 100.22 65.66 51.0 32.46 4.25 NW 4.70 NW 5.59 N No 0.000 No Precipitation 06/22/2022 02:12 AM 06/22/2022 02:19 AM 0.000 0.000 0.000 0.000 0.000 1.24 Clear
06/24/2022 01:04 AM 75.74 63.50 56.12 100.22 65.66 50.0 32.46 4.25 NW 3.58 NW 5.82 NW No 0.000 No Precipitation 06/22/2022 02:12 AM 06/22/2022 02:19 AM 0.000 0.000 0.000 0.000 0.000 1.24 Clear
06/24/2022 01:05 AM 75.92 63.50 55.94 100.22 65.66 50.0 32.46 4.03 NW 3.58 NW 5.82 NW No 0.000 No Precipitation 06/22/2022 02:12 AM 06/22/2022 02:19 AM 0.000 0.000 0.000 0.000 0.000 1.24 Clear
06/24/2022 01:06 AM 75.92 63.68 56.30 100.22 65.66 50.0 32.46 4.03 NW 3.58 NW 5.82 NW No 0.000 No Precipitation 06/22/2022 02:12 AM 06/22/2022 02:19 AM 0.000 0.000 0.000 0.000 0.000 1.24 Clear
06/24/2022 01:07 AM 75.92 63.50 56.30 100.22 65.66 50.0 32.46 3.80 NW 3.36 N 5.82 NW No 0.000 No Precipitation 06/22/2022 02:12 AM 06/22/2022 02:19 AM 0.000 0.000 0.000 0.000 0.000 1.24 Clear
06/24/2022 01:08 AM 75.74 63.68 56.66 100.22 65.66 51.0 32.46 4.03 N 4.70 N 5.82 NW No 0.000 No Precipitation 06/22/2022 02:12 AM 06/22/2022 02:19 AM 0.000 0.000 0.000 0.000 0.000 1.24 Clear
06/24/2022 01:09 AM 75.56 63.50 56.30 100.22 65.66 51.0 32.46 4.25 N 4.25 N 5.82 N No 0.000 No Precipitation 06/22/2022 02:12 AM 06/22/2022 02:19 AM 0.000 0.000 0.000 0.000 0.000 1.24 Clear
06/24/2022 01:10 AM 75.56 63.50 56.48 100.22 65.66 51.0 32.46 4.47 N 3.58 NW 5.82 N No 0.000 No Precipitation 06/22/2022 02:12 AM 06/22/2022 02:19 AM 0.000 0.000 0.000 0.000 0.000 1.24 Clear
06/24/2022 01:11 AM 75.56 63.32 55.94 100.22 65.66 50.0 32.46 4.03 N 3.36 N 5.82 N No 0.000 No Precipitation 06/22/2022 02:12 AM 06/22/2022 02:19 AM 0.000 0.000 0.000 0.000 0.000 1.24 Clear
06/24/2022 01:12 AM 75.56 63.14 55.76 100.22 65.66 50.0 32.46 3.80 N 3.80 N 5.82 N No 0.000 No Precipitation 06/22/2022 02:12 AM 06/22/2022 02:19 AM 0.000 0.000 0.000 0.000 0.000 1.24 Clear
06/24/2022 01:13 AM 75.74 63.14 55.40 100.22 65.66 49.0 32.46 3.80 N 5.14 N 5.82 N No 0.000 No Precipitation 06/22/2022 02:12 AM 06/22/2022 02:19 AM 0.000 0.000 0.000 0.000 0.000 1.24 Clear
06/24/2022 01:14 AM 75.74 63.32 55.76 100.22 65.66 49.0 32.46 4.03 N 4.25 N 6.04 N No 0.000 No Precipitation 06/22/2022 02:12 AM 06/22/2022 02:19 AM 0.000 0.000 0.000 0.000 0.000 1.24 Clear
06/24/2022 01:15 AM 75.92 63.14 55.40 100.22 65.66 49.0 32.46 3.80 N 3.80 N 6.04 N No 0.000 No Precipitation 06/22/2022 02:12 AM 06/22/2022 02:19 AM 0.000 0.000 0.000 0.000 0.000 1.24 Clear
06/24/2022 01:16 AM 76.10 63.32 55.58 100.22 65.66 49.0 32.46 3.58 N 3.58 N 6.04 N No 0.000 No Precipitation 06/22/2022 02:12 AM 06/22/2022 02:19 AM 0.000 0.000 0.000 0.000 0.000 1.24 Clear
06/24/2022 01:17 AM 76.10 63.32 55.76 100.22 65.66 49.0 32.46 3.58 N 4.70 N 6.04 N No 0.000 No Precipitation 06/22/2022 02:12 AM 06/22/2022 02:19 AM 0.000 0.000 0.000 0.000 0.000 1.24 Clear
06/24/2022 01:18 AM 75.92 63.32 55.58 100.22 65.66 49.0 32.46 3.80 N 4.70 N 6.04 N No 0.000 No Precipitation 06/22/2022 02:12 AM 06/22/2022 02:19 AM 0.000 0.000 0.000 0.000 0.000 1.24 Clear
06/24/2022 01:19 AM 75.92 62.96 54.86 100.22 65.66 48.0 32.46 4.25 N 3.13 N 6.04 N No 0.000 No Precipitation 06/22/2022 02:12 AM 06/22/2022 02:19 AM 0.000 0.000 0.000 0.000 0.000 1.24 Clear
06/24/2022 01:20 AM 76.10 63.68 56.12 100.22 65.66 49.0 32.46 4.03 N 3.36 NW 6.04 N No 0.000 No Precipitation 06/22/2022 02:12 AM 06/22/2022 02:19 AM 0.000 0.000 0.000 0.000 0.000 1.24 Clear
06/24/2022 01:21 AM 76.10 63.50 55.76 100.22 65.66 49.0 32.46 4.03 NW 4.92 NW 6.04 N No 0.000 No Precipitation 06/22/2022 02:12 AM 06/22/2022 02:19 AM 0.000 0.000 0.000 0.000 0.000 1.24 Clear
06/24/2022 01:22 AM 76.10 63.32 55.76 100.22 65.66 49.0 32.46 4.92 NW 4.47 NW 6.49 NW No 0.000 No Precipitation 06/22/2022 02:12 AM 06/22/2022 02:19 AM 0.000 0.000 0.000 0.000 0.000 1.24 Clear
06/24/2022 01:23 AM 76.28 63.32 55.40 100.22 65.66 48.0 32.46 4.92 NW 4.03 N 6.49 NW No 0.000 No Precipitation 06/22/2022 02:12 AM 06/22/2022 02:19 AM 0.000 0.000 0.000 0.000 0.000 1.24 Clear
06/24/2022 01:24 AM 76.46 63.50 55.58 100.22 65.66 48.0 32.46 4.25 NW 2.68 NW 6.49 NW No 0.000 No Precipitation 06/22/2022 02:12 AM 06/22/2022 02:19 AM 0.000 0.000 0.000 0.000 0.000 1.24 Clear
06/24/2022 01:25 AM 76.28 63.68 55.94 100.22 65.66 49.0 32.46 3.80 NW 2.91 NW 6.49 NW No 0.000 No Precipitation 06/22/2022 02:12 AM 06/22/2022 02:19 AM 0.000 0.000 0.000 0.000 0.000 1.24 Clear
06/24/2022 01:26 AM 76.10 63.50 55.76 100.22 65.66 49.0 32.46 3.58 NW 3.58 N 6.49 NW No 0.000 No Precipitation 06/22/2022 02:12 AM 06/22/2022 02:19 AM 0.000 0.000 0.000 0.000 0.000 1.24 Clear
06/24/2022 01:27 AM 75.92 63.32 55.76 100.22 65.66 49.0 32.46 3.58 N 3.36 N 6.49 NW No 0.000 No Precipitation 06/22/2022 02:12 AM 06/22/2022 02:19 AM 0.000 0.000 0.000 0.000 0.000 1.24 Clear
06/24/2022 01:28 AM 75.92 63.32 55.76 100.22 65.66 49.0 32.46 3.36 N 3.36 N 6.49 NW No 0.000 No Precipitation 06/22/2022 02:12 AM 06/22/2022 02:19 AM 0.000 0.000 0.000 0.000 0.000 1.24 Clear
06/24/2022 01:29 AM 75.92 63.32 55.76 100.22 65.66 49.0 32.46 3.13 N 3.13 N 6.49 NW No 0.000 No Precipitation 06/22/2022 02:12 AM 06/22/2022 02:19 AM 0.000 0.000 0.000 0.000 0.000 1.24 Clear
06/24/2022 01:30 AM 75.92 63.32 55.76 100.22 65.66 50.0 32.46 2.68 N 2.24 NW 6.49 NW No 0.000 No Precipitation 06/22/2022 02:12 AM 06/22/2022 02:19 AM 0.000 0.000 0.000 0.000 0.000 1.24 Clear
06/24/2022 01:31 AM 75.92 63.14 55.58 100.22 65.66 49.0 32.46 2.46 NW 2.91 NW 6.49 NW No 0.000 No Precipitation 06/22/2022 02:12 AM 06/22/2022 02:19 AM 0.000 0.000 0.000 0.000 0.000 1.24 Clear
06/24/2022 01:32 AM 75.92 63.14 55.22 100.22 65.66 48.0 32.46 3.36 NW 4.92 NW 6.26 NW No 0.000 No Precipitation 06/22/2022 02:12 AM 06/22/2022 02:19 AM 0.000 0.000 0.000 0.000 0.000 1.24 Clear
06/24/2022 01:33 AM 76.10 63.14 55.04 100.22 65.66 48.0 32.46 4.03 NW 4.25 NW 5.82 NW No 0.000 No Precipitation 06/22/2022 02:12 AM 06/22/2022 02:19 AM 0.000 0.000 0.000 0.000 0.000 1.24 Clear
06/24/2022 01:34 AM 76.28 63.14 55.22 100.22 65.66 48.0 32.46 4.03 NW 4.47 NW 5.59 NW No 0.000 No Precipitation 06/22/2022 02:12 AM 06/22/2022 02:19 AM 0.000 0.000 0.000 0.000 0.000 1.24 Clear
06/24/2022 01:35 AM 76.28 63.14 55.22 100.22 65.66 48.0 32.46 4.47 NW 4.92 NW 6.04 NW No 0.000 No Precipitation 06/22/2022 02:12 AM 06/22/2022 02:19 AM 0.000 0.000 0.000 0.000 0.000 1.24 Clear
06/24/2022 01:36 AM 76.10 63.14 55.40 100.22 65.66 48.0 32.46 4.70 NW 4.47 NW 6.04 NW No 0.000 No Precipitation 06/22/2022 02:12 AM 06/22/2022 02:19 AM 0.000 0.000 0.000 0.000 0.000 1.24 Clear
06/24/2022 01:37 AM 76.10 63.32 55.40 100.22 65.66 49.0 32.46 4.47 NW 4.70 NW 6.04 NW No 0.000 No Precipitation 06/22/2022 02:12 AM 06/22/2022 02:19 AM 0.000 0.000 0.000 0.000 0.000 1.24 Clear
06/24/2022 01:38 AM 76.10 63.32 55.58 100.22 65.66 49.0 32.46 4.70 NW 4.47 NW 6.04 NW No 0.000 No Precipitation 06/22/2022 02:12 AM 06/22/2022 02:19 AM 0.000 0.000 0.000 0.000 0.000 1.24 Clear
06/24/2022 01:39 AM 75.92 63.14 55.58 100.22 65.66 49.0 32.46 4.92 NW 5.14 NW 6.04 NW No 0.000 No Precipitation 06/22/2022 02:12 AM 06/22/2022 02:19 AM 0.000 0.000 0.000 0.000 0.000 1.24 Clear
06/24/2022 01:40 AM 75.74 63.14 55.58 100.22 65.66 50.0 32.46 5.37 NW 5.59 NW 6.93 NW No 0.000 No Precipitation 06/22/2022 02:12 AM 06/22/2022 02:19 AM 0.000 0.000 0.000 0.000 0.000 1.24 Clear
06/24/2022 01:41 AM 75.56 63.14 55.76 100.22 65.66 50.0 32.46 5.59 NW 5.59 NW 6.93 NW No 0.000 No Precipitation 06/22/2022 02:12 AM 06/22/2022 02:19 AM 0.000 0.000 0.000 0.000 0.000 1.24 Clear
06/24/2022 01:42 AM 75.38 63.14 55.76 100.22 65.66 50.0 32.46 5.82 NW 6.49 NW 7.16 NW No 0.000 No Precipitation 06/22/2022 02:12 AM 06/22/2022 02:19 AM 0.000 0.000 0.000 0.000 0.000 1.24 Clear
06/24/2022 01:43 AM 75.20 63.32 55.94 100.22 65.66 51.0 32.46 5.82 NW 4.92 NW 7.16 NW No 0.000 No Precipitation 06/22/2022 02:12 AM 06/22/2022 02:19 AM 0.000 0.000 0.000 0.000 0.000 1.24 Clear
06/24/2022 01:44 AM 75.20 62.78 55.22 100.22 65.66 49.0 32.46 5.59 NW 5.14 NW 7.16 NW No 0.000 No Precipitation 06/22/2022 02:12 AM 06/22/2022 02:19 AM 0.000 0.000 0.000 0.000 0.000 1.24 Clear
06/24/2022 01:45 AM 75.56 62.78 54.86 100.22 65.66 49.0 32.46 5.59 NW 3.58 NW 7.16 NW No 0.000 No Precipitation 06/22/2022 02:12 AM 06/22/2022 02:19 AM 0.000 0.000 0.000 0.000 0.000 1.24 Clear
06/24/2022 01:46 AM 75.56 62.96 55.22 100.22 65.66 49.0 32.46 5.14 NW 5.14 NW 7.16 NW No 0.000 No Precipitation 06/22/2022 02:12 AM 06/22/2022 02:19 AM 0.000 0.000 0.000 0.000 0.000 1.24 Clear
06/24/2022 01:47 AM 75.56 62.96 55.04 100.22 65.66 49.0 32.46 4.70 NW 4.25 NW 7.16 NW No 0.000 No Precipitation 06/22/2022 02:12 AM 06/22/2022 02:19 AM 0.000 0.000 0.000 0.000 0.000 1.24 Clear
06/24/2022 01:48 AM 75.56 62.96 55.22 100.22 65.66 49.0 32.46 4.47 NW 4.47 NW 7.16 NW No 0.000 No Precipitation 06/22/2022 02:12 AM 06/22/2022 02:19 AM 0.000 0.000 0.000 0.000 0.000 1.24 Clear
06/24/2022 01:49 AM 75.38 62.96 55.40 100.22 65.66 50.0 32.46 4.25 NW 4.03 NW 7.16 NW No 0.000 No Precipitation 06/22/2022 02:12 AM 06/22/2022 02:19 AM 0.000 0.000 0.000 0.000 0.000 1.24 Clear
06/24/2022 01:50 AM 75.20 63.32 56.12 100.22 65.66 51.0 32.46 4.03 NW 4.25 NW 7.16 NW No 0.000 No Precipitation 06/22/2022 02:12 AM 06/22/2022 02:19 AM 0.000 0.000 0.000 0.000 0.000 1.24 Clear
06/24/2022 01:51 AM 75.02 63.14 55.94 100.22 65.66 51.0 32.46 3.58 NW 2.91 NW 6.71 NW No 0.000 No Precipitation 06/22/2022 02:12 AM 06/22/2022 02:19 AM 0.000 0.000 0.000 0.000 0.000 1.24 Clear
06/24/2022 01:52 AM 74.84 62.96 55.76 100.22 65.66 51.0 32.46 3.58 NW 4.25 NW 6.71 NW No 0.000 No Precipitation 06/22/2022 02:12 AM 06/22/2022 02:19 AM 0.000 0.000 0.000 0.000 0.000 1.24 Clear
06/24/2022 01:53 AM 74.66 63.14 56.30 100.22 65.66 52.0 32.46 3.36 NW 3.13 NW 6.71 NW No 0.000 No Precipitation 06/22/2022 02:12 AM 06/22/2022 02:19 AM 0.000 0.000 0.000 0.000 0.000 1.24 Clear
06/24/2022 01:54 AM 74.66 62.96 55.94 100.22 65.66 52.0 32.46 3.13 NW 3.58 NW 6.04 NW No 0.000 No Precipitation 06/22/2022 02:12 AM 06/22/2022 02:19 AM 0.000 0.000 0.000 0.000 0.000 1.24 Clear
06/24/2022 01:55 AM 74.48 62.60 55.40 100.22 65.66 51.0 32.46 3.36 NW 3.13 NW 5.37 NW No 0.000 No Precipitation 06/22/2022 02:12 AM 06/22/2022 02:19 AM 0.000 0.000 0.000 0.000 0.000 1.24 Clear
06/24/2022 01:56 AM 74.48 62.78 55.58 100.22 65.66 51.0 32.46 3.13 NW 3.36 NW 5.14 NW No 0.000 No Precipitation 06/22/2022 02:12 AM 06/22/2022 02:19 AM 0.000 0.000 0.000 0.000 0.000 1.24 Clear
06/24/2022 01:57 AM 74.66 62.42 54.86 100.22 65.66 50.0 32.46 3.13 NW 3.36 NW 5.14 NW No 0.000 No Precipitation 06/22/2022 02:12 AM 06/22/2022 02:19 AM 0.000 0.000 0.000 0.000 0.000 1.24 Clear
06/24/2022 01:58 AM 74.84 62.60 54.86 100.22 65.66 50.0 32.46 3.13 NW 3.36 NW 5.14 NW No 0.000 No Precipitation 06/22/2022 02:12 AM 06/22/2022 02:19 AM 0.000 0.000 0.000 0.000 0.000 1.24 Clear
06/24/2022 01:59 AM 75.02 62.60 54.68 100.22 65.66 49.0 32.46 3.36 NW 2.01 NW 5.14 NW No 0.000 No Precipitation 06/22/2022 02:12 AM 06/22/2022 02:19 AM 0.000 0.000 0.000 0.000 0.000 1.24 Clear
06/24/2022 02:00 AM 75.38 62.60 54.86 100.22 65.66 49.0 32.46 2.91 NW 2.46 NW 5.14 NW No 0.000 No Precipitation 06/22/2022 02:12 AM 06/22/2022 02:19 AM 0.000 0.000 0.000 0.000 0.000 1.24 Clear
06/24/2022 02:01 AM 75.38 62.96 55.40 100.22 65.66 50.0 32.46 2.68 NW 2.46 NW 4.25 NW No 0.000 No Precipitation 06/22/2022 02:12 AM 06/22/2022 02:19 AM 0.000 0.000 0.000 0.000 0.000 1.24 Clear
06/24/2022 02:02 AM 75.20 62.78 55.22 100.22 65.66 49.0 32.46 2.68 NW 2.46 NW 4.25 NW No 0.000 No Precipitation 06/22/2022 02:12 AM 06/22/2022 02:19 AM 0.000 0.000 0.000 0.000 0.000 1.24 Clear
06/24/2022 02:03 AM 75.20 62.96 55.58 100.22 65.66 50.0 32.46 2.68 N 3.36 N 4.25 NW No 0.000 No Precipitation 06/22/2022 02:12 AM 06/22/2022 02:19 AM 0.000 0.000 0.000 0.000 0.000 1.24 Clear
06/24/2022 02:04 AM 75.02 63.14 56.12 100.22 65.66 52.0 32.46 3.13 NW 3.36 NW 4.25 NW No 0.000 No Precipitation 06/22/2022 02:12 AM 06/22/2022 02:19 AM 0.000 0.000 0.000 0.000 0.000 1.24 Clear
06/24/2022 02:05 AM 74.84 62.78 55.40 100.22 65.66 51.0 32.46 3.13 NW 3.13 N 4.25 NW No 0.000 No Precipitation 06/22/2022 02:12 AM 06/22/2022 02:19 AM 0.000 0.000 0.000 0.000 0.000 1.24 Clear
06/24/2022 02:06 AM 74.84 62.78 55.58 100.22 65.66 51.0 32.46 3.13 NW 3.36 N 4.25 NW No 0.000 No Precipitation 06/22/2022 02:12 AM 06/22/2022 02:19 AM 0.000 0.000 0.000 0.000 0.000 1.24 Clear
06/24/2022 02:07 AM 74.84 62.78 55.40 100.22 65.66 51.0 32.46 3.36 NW 3.13 NW 4.47 NW No 0.000 No Precipitation 06/22/2022 02:12 AM 06/22/2022 02:19 AM 0.000 0.000 0.000 0.000 0.000 1.24 Clear
06/24/2022 02:08 AM 74.66 62.60 55.22 100.22 65.66 50.0 32.46 3.36 NW 3.13 NW 4.47 NW No 0.000 No Precipitation 06/22/2022 02:12 AM 06/22/2022 02:19 AM 0.000 0.000 0.000 0.000 0.000 1.24 Clear
06/24/2022 02:09 AM 74.66 62.60 55.22 100.22 65.66 50.0 32.46 3.36 NW 3.13 NW 4.47 NW No 0.000 No Precipitation 06/22/2022 02:12 AM 06/22/2022 02:19 AM 0.000 0.000 0.000 0.000 0.000 1.24 Clear
06/24/2022 02:10 AM 74.66 62.96 55.76 100.22 65.66 52.0 32.46 3.58 NW 4.03 NW 4.47 NW No 0.000 No Precipitation 06/22/2022 02:12 AM 06/22/2022 02:19 AM 0.000 0.000 0.000 0.000 0.000 1.24 Clear
06/24/2022 02:11 AM 74.48 62.42 55.04 100.22 65.66 50.0 32.46 3.36 NW 3.36 NW 4.47 NW No 0.000 No Precipitation 06/22/2022 02:12 AM 06/22/2022 02:19 AM 0.000 0.000 0.000 0.000 0.000 1.24 Clear
06/24/2022 02:12 AM 74.66 62.42 54.68 100.22 65.66 49.0 32.46 3.36 NW 2.91 N 4.47 NW No 0.000 No Precipitation 06/22/2022 02:12 AM 06/22/2022 02:19 AM 0.000 0.000 0.000 0.000 0.000 1.24 Clear
06/24/2022 02:13 AM 75.02 62.78 55.22 100.22 65.66 50.0 32.46 3.36 NW 2.68 NW 4.47 NW No 0.000 No Precipitation 06/22/2022 02:12 AM 06/22/2022 02:19 AM 0.000 0.000 0.000 0.000 0.000 1.24 Clear
06/24/2022 02:14 AM 75.02 63.50 56.66 100.22 65.66 53.0 32.46 3.36 NW 3.13 NW 4.47 NW No 0.000 No Precipitation 06/22/2022 02:12 AM 06/22/2022 02:19 AM 0.000 0.000 0.000 0.000 0.000 1.24 Clear
06/24/2022 02:15 AM 74.66 62.96 55.76 100.22 65.66 51.0 32.46 3.13 NW 2.68 N 4.47 NW No 0.000 No Precipitation 06/22/2022 02:12 AM 06/22/2022 02:19 AM 0.000 0.000 0.000 0.000 0.000 1.24 Clear
06/24/2022 02:16 AM 74.48 63.14 56.30 100.22 65.66 53.0 32.46 3.13 NW 3.13 NW 4.25 N No 0.000 No Precipitation 06/22/2022 02:12 AM 06/22/2022 02:19 AM 0.000 0.000 0.000 0.000 0.000 1.24 Clear
06/24/2022 02:17 AM 74.30 62.42 55.04 100.22 65.66 51.0 32.46 3.58 NW 4.03 NW 5.37 N No 0.000 No Precipitation 06/22/2022 02:12 AM 06/22/2022 02:19 AM 0.000 0.000 0.000 0.000 0.000 1.24 Clear
06/24/2022 02:18 AM 74.48 62.60 55.22 100.22 65.66 51.0 32.46 4.03 NW 4.25 NW 5.59 NW No 0.000 No Precipitation 06/22/2022 02:12 AM 06/22/2022 02:19 AM 0.000 0.000 0.000 0.000 0.000 1.24 Clear
06/24/2022 02:19 AM 74.48 62.60 55.40 100.22 65.66 51.0 32.46 4.25 NW 3.80 NW 5.59 NW No 0.000 No Precipitation 06/22/2022 02:12 AM 06/22/2022 02:19 AM 0.000 0.000 0.000 0.000 0.000 1.24 Clear
06/24/2022 02:20 AM 74.30 62.42 54.86 100.22 65.66 50.0 32.46 4.47 NW 4.47 NW 5.59 NW No 0.000 No Precipitation 06/22/2022 02:12 AM 06/22/2022 02:19 AM 0.000 0.000 0.000 0.000 0.000 1.24 Clear
06/24/2022 02:21 AM 74.48 62.24 54.68 100.22 65.66 50.0 32.46 5.59 NW 5.59 NW 8.05 NW No 0.000 No Precipitation 06/22/2022 02:12 AM 06/22/2022 02:19 AM 0.000 0.000 0.000 0.000 0.000 1.24 Clear
06/24/2022 02:22 AM 74.84 62.60 55.22 100.22 65.66 50.0 32.46 6.04 NW 6.26 NW 8.50 NW No 0.000 No Precipitation 06/22/2022 02:12 AM 06/22/2022 02:19 AM 0.000 0.000 0.000 0.000 0.000 1.24 Clear
06/24/2022 02:23 AM 74.84 62.42 54.68 100.22 65.66 49.0 32.46 6.26 NW 5.59 NW 8.50 NW No 0.000 No Precipitation 06/22/2022 02:12 AM 06/22/2022 02:19 AM 0.000 0.000 0.000 0.000 0.000 1.24 Clear
06/24/2022 02:24 AM 75.02 62.60 54.86 100.22 65.66 49.0 32.46 6.04 NW 4.03 NW 8.50 NW No 0.000 No Precipitation 06/22/2022 02:12 AM 06/22/2022 02:19 AM 0.000 0.000 0.000 0.000 0.000 1.24 Clear
06/24/2022 02:25 AM 75.02 62.42 54.68 100.22 65.66 49.0 32.46 6.04 NW 7.16 NW 8.50 NW No 0.000 No Precipitation 06/22/2022 02:12 AM 06/22/2022 02:19 AM 0.000 0.000 0.000 0.000 0.000 1.24 Clear
06/24/2022 02:26 AM 75.02 62.42 54.50 100.22 65.66 49.0 32.46 5.82 NW 6.71 NW 8.50 NW No 0.000 No Precipitation 06/22/2022 02:12 AM 06/22/2022 02:19 AM 0.000 0.000 0.000 0.000 0.000 1.24 Clear
06/24/2022 02:27 AM 75.02 62.60 54.86 100.22 65.66 49.0 32.46 6.04 NW 6.26 NW 8.50 NW No 0.000 No Precipitation 06/22/2022 02:12 AM 06/22/2022 02:19 AM 0.000 0.000 0.000 0.000 0.000 1.24 Clear
06/24/2022 02:28 AM 74.84 62.42 54.68 100.22 65.66 49.0 32.46 6.04 NW 4.70 NW 8.50 NW No 0.000 No Precipitation 06/22/2022 02:12 AM 06/22/2022 02:19 AM 0.000 0.000 0.000 0.000 0.000 1.24 Clear
06/24/2022 02:29 AM 74.84 62.42 54.86 100.22 65.66 49.0 32.46 5.37 NW 4.03 NW 8.50 NW No 0.000 No Precipitation 06/22/2022 02:12 AM 06/22/2022 02:19 AM 0.000 0.000 0.000 0.000 0.000 1.24 Clear
06/24/2022 02:30 AM 74.66 62.42 54.68 100.22 65.66 49.0 32.46 5.37 NW 4.70 NW 8.50 NW No 0.000 No Precipitation 06/22/2022 02:12 AM 06/22/2022 02:19 AM 0.000 0.000 0.000 0.000 0.000 1.24 Clear
06/24/2022 02:31 AM 74.66 62.42 54.86 100.22 65.66 50.0 32.46 5.37 NW 5.82 NW 8.50 NW No 0.000 No Precipitation 06/22/2022 02:12 AM 06/22/2022 02:19 AM 0.000 0.000 0.000 0.000 0.000 1.24 Clear
06/24/2022 02:32 AM 74.48 62.42 55.04 100.22 65.66 50.0 32.46 5.37 NW 6.26 NW 7.61 NW No 0.000 No Precipitation 06/22/2022 02:12 AM 06/22/2022 02:19 AM 0.000 0.000 0.000 0.000 0.000 1.24 Clear
06/24/2022 02:33 AM 74.30 62.24 54.86 100.22 65.66 50.0 32.46 5.37 NW 6.26 NW 7.61 NW No 0.000 No Precipitation 06/22/2022 02:12 AM 06/22/2022 02:19 AM 0.000 0.000 0.000 0.000 0.000 1.24 Clear
06/24/2022 02:34 AM 74.30 62.42 55.04 100.22 65.66 51.0 32.46 5.37 NW 4.92 NW 7.61 NW No 0.000 No Precipitation 06/22/2022 02:12 AM 06/22/2022 02:19 AM 0.000 0.000 0.000 0.000 0.000 1.24 Clear
06/24/2022 02:35 AM 74.30 62.42 54.86 100.22 65.66 50.0 32.46 5.14 NW 6.71 NW 7.61 NW No 0.000 No Precipitation 06/22/2022 02:12 AM 06/22/2022 02:19 AM 0.000 0.000 0.000 0.000 0.000 1.24 Clear
06/24/2022 02:36 AM 74.30 62.24 54.68 100.22 65.66 50.0 32.46 5.37 NW 6.26 NW 7.61 NW No 0.000 No Precipitation 06/22/2022 02:12 AM 06/22/2022 02:19 AM 0.000 0.000 0.000 0.000 0.000 1.24 Clear
06/24/2022 02:37 AM 74.30 62.24 54.86 100.22 65.66 50.0 32.46 5.37 NW 4.92 NW 7.61 NW No 0.000 No Precipitation 06/22/2022 02:12 AM 06/22/2022 02:19 AM 0.000 0.000 0.000 0.000 0.000 1.24 Clear
06/24/2022 02:38 AM 74.30 62.42 55.04 100.22 65.66 51.0 32.46 5.14 NW 5.59 NW 6.71 NW No 0.000 No Precipitation 06/22/2022 02:12 AM 06/22/2022 02:19 AM 0.000 0.000 0.000 0.000 0.000 1.24 Clear
06/24/2022 02:39 AM 74.12 62.24 54.86 100.22 65.66 51.0 32.46 5.37 NW 6.49 NW 8.50 NW No 0.000 No Precipitation 06/22/2022 02:12 AM 06/22/2022 02:19 AM 0.000 0.000 0.000 0.000 0.000 1.24 Clear
06/24/2022 02:40 AM 74.12 62.24 54.86 100.22 65.66 51.0 32.46 5.82 NW 5.37 NW 8.50 NW No 0.000 No Precipitation 06/22/2022 02:12 AM 06/22/2022 02:19 AM 0.000 0.000 0.000 0.000 0.000 1.24 Clear
06/24/2022 02:41 AM 74.12 62.24 54.86 100.22 65.66 51.0 32.46 5.37 NW 5.82 NW 8.50 NW No 0.000 No Precipitation 06/22/2022 02:12 AM 06/22/2022 02:19 AM 0.000 0.000 0.000 0.000 0.000 1.24 Clear
06/24/2022 02:42 AM 74.12 62.24 54.68 100.22 65.66 50.0 32.46 5.59 NW 6.26 NW 8.50 NW No 0.000 No Precipitation 06/22/2022 02:12 AM 06/22/2022 02:19 AM 0.000 0.000 0.000 0.000 0.000 1.24 Clear
06/24/2022 02:43 AM 74.12 62.24 54.68 100.22 65.66 51.0 32.46 5.59 NW 4.92 NW 8.50 NW No 0.000 No Precipitation 06/22/2022 02:12 AM 06/22/2022 02:19 AM 0.000 0.000 0.000 0.000 0.000 1.24 Clear
06/24/2022 02:44 AM 74.12 62.24 54.86 100.22 65.66 51.0 32.46 5.37 NW 6.93 NW 8.50 NW No 0.000 No Precipitation 06/22/2022 02:12 AM 06/22/2022 02:19 AM 0.000 0.000 0.000 0.000 0.000 1.24 Clear
06/24/2022 02:45 AM 74.12 62.06 54.68 100.22 65.66 51.0 32.46 5.37 NW 7.16 NW 8.50 NW No 0.000 No Precipitation 06/22/2022 02:12 AM 06/22/2022 02:19 AM 0.000 0.000 0.000 0.000 0.000 1.24 Clear
06/24/2022 02:46 AM 74.12 62.06 54.68 100.22 65.66 51.0 32.46 5.37 NW 5.82 NW 8.50 NW No 0.000 No Precipitation 06/22/2022 02:12 AM 06/22/2022 02:19 AM 0.000 0.000 0.000 0.000 0.000 1.24 Clear
06/24/2022 02:47 AM 73.94 62.24 54.86 100.22 65.66 51.0 32.46 5.59 NW 6.26 NW 8.50 NW No 0.000 No Precipitation 06/22/2022 02:12 AM 06/22/2022 02:19 AM 0.000 0.000 0.000 0.000 0.000 1.24 Clear
06/24/2022 02:48 AM 74.12 62.06 54.68 100.22 65.66 50.0 32.46 5.37 NW 4.92 NW 8.50 NW No 0.000 No Precipitation 06/22/2022 02:12 AM 06/22/2022 02:19 AM 0.000 0.000 0.000 0.000 0.000 1.24 Clear
06/24/2022 02:49 AM 74.12 62.06 54.68 100.22 65.66 50.0 32.46 4.92 NW 4.25 NW 7.16 NW No 0.000 No Precipitation 06/22/2022 02:12 AM 06/22/2022 02:19 AM 0.000 0.000 0.000 0.000 0.000 1.24 Clear
06/24/2022 02:50 AM 74.12 62.06 54.68 100.22 65.66 50.0 32.46 5.59 NW 5.14 NW 7.83 NW No 0.000 No Precipitation 06/22/2022 02:12 AM 06/22/2022 02:19 AM 0.000 0.000 0.000 0.000 0.000 1.24 Clear
06/24/2022 02:51 AM 74.12 62.06 54.68 100.22 65.66 50.0 32.46 5.82 NW 6.26 NW 7.83 NW No 0.000 No Precipitation 06/22/2022 02:12 AM 06/22/2022 02:19 AM 0.000 0.000 0.000 0.000 0.000 1.24 Clear
06/24/2022 02:52 AM 74.12 62.24 54.68 100.22 65.66 50.0 32.46 5.59 NW 6.49 NW 7.83 NW No 0.000 No Precipitation 06/22/2022 02:12 AM 06/22/2022 02:19 AM 0.000 0.000 0.000 0.000 0.000 1.24 Clear
06/24/2022 02:53 AM 73.94 62.24 54.68 100.22 65.66 51.0 32.46 5.59 NW 5.82 NW 7.83 NW No 0.000 No Precipitation 06/22/2022 02:12 AM 06/22/2022 02:19 AM 0.000 0.000 0.000 0.000 0.000 1.24 Clear
06/24/2022 02:54 AM 73.94 62.06 54.68 100.22 65.66 51.0 32.46 5.37 NW 3.36 NW 7.83 NW No 0.000 No Precipitation 06/22/2022 02:12 AM 06/22/2022 02:19 AM 0.000 0.000 0.000 0.000 0.000 1.24 Clear
06/24/2022 02:55 AM 73.94 62.06 54.86 100.22 65.66 51.0 32.46 4.25 NW 4.47 N 7.83 NW No 0.000 No Precipitation 06/22/2022 02:12 AM 06/22/2022 02:19 AM 0.000 0.000 0.000 0.000 0.000 1.24 Clear
06/24/2022 02:56 AM 73.76 62.24 55.04 100.22 65.66 52.0 32.46 3.80 N 4.70 N 7.83 NW No 0.000 No Precipitation 06/22/2022 02:12 AM 06/22/2022 02:19 AM 0.000 0.000 0.000 0.000 0.000 1.24 Clear
06/24/2022 02:57 AM 73.76 62.24 55.04 100.22 65.66 52.0 32.46 4.03 N 3.80 N 7.83 NW No 0.000 No Precipitation 06/22/2022 02:12 AM 06/22/2022 02:19 AM 0.000 0.000 0.000 0.000 0.000 1.24 Clear
06/24/2022 02:58 AM 73.58 62.24 55.22 100.22 65.66 52.0 32.46 4.25 N 4.25 N 7.83 NW No 0.000 No Precipitation 06/22/2022 02:12 AM 06/22/2022 02:19 AM 0.000 0.000 0.000 0.000 0.000 1.24 Clear
06/24/2022 02:59 AM 73.58 62.24 55.22 100.22 65.66 52.0 32.46 3.80 N 4.03 N 7.83 NW No 0.000 No Precipitation 06/22/2022 02:12 AM 06/22/2022 02:19 AM 0.000 0.000 0.000 0.000 0.000 1.24 Clear
06/24/2022 03:00 AM 73.40 62.24 55.22 100.22 65.66 52.0 32.46 3.80 N 4.47 N 7.38 NW No 0.000 No Precipitation 06/22/2022 02:12 AM 06/22/2022 02:19 AM 0.000 0.000 0.000 0.000 0.000 1.24 Clear
06/24/2022 03:01 AM 73.40 62.06 55.04 100.22 65.66 52.0 32.46 4.47 N 5.14 NW 7.38 NW No 0.000 No Precipitation 06/22/2022 02:12 AM 06/22/2022 02:19 AM 0.000 0.000 0.000 0.000 0.000 1.24 Clear
06/24/2022 03:02 AM 73.40 62.06 54.86 100.22 65.66 52.0 32.46 4.92 N 4.92 N 6.71 NW No 0.000 No Precipitation 06/22/2022 02:12 AM 06/22/2022 02:19 AM 0.000 0.000 0.000 0.000 0.000 1.24 Clear
06/24/2022 03:03 AM 73.58 62.06 55.04 100.22 65.66 52.0 32.46 5.14 NW 5.82 N 6.71 N No 0.000 No Precipitation 06/22/2022 02:12 AM 06/22/2022 02:19 AM 0.000 0.000 0.000 0.000 0.000 1.24 Clear
06/24/2022 03:04 AM 73.58 62.06 55.04 100.22 65.66 52.0 32.46 4.92 NW 3.80 N 6.71 N No 0.000 No Precipitation 06/22/2022 02:12 AM 06/22/2022 02:19 AM 0.000 0.000 0.000 0.000 0.000 1.24 Clear
06/24/2022 03:05 AM 73.76 62.06 54.68 100.22 65.66 51.0 32.46 4.70 NW 5.37 NW 6.71 N No 0.000 No Precipitation 06/22/2022 02:12 AM 06/22/2022 02:19 AM 0.000 0.000 0.000 0.000 0.000 1.24 Clear
06/24/2022 03:06 AM 73.94 62.06 54.68 100.22 65.66 51.0 32.46 4.70 NW 4.03 NW 6.71 N No 0.000 No Precipitation 06/22/2022 02:12 AM 06/22/2022 02:19 AM 0.000 0.000 0.000 0.000 0.000 1.24 Clear
06/24/2022 03:07 AM 73.94 62.06 54.68 100.22 65.66 51.0 32.46 4.25 N 4.25 N 6.71 N No 0.000 No Precipitation 06/22/2022 02:12 AM 06/22/2022 02:19 AM 0.000 0.000 0.000 0.000 0.000 1.24 Clear
06/24/2022 03:08 AM 73.94 62.06 54.50 100.22 65.66 51.0 32.46 3.80 N 4.47 N 6.71 N No 0.000 No Precipitation 06/22/2022 02:12 AM 06/22/2022 02:19 AM 0.000 0.000 0.000 0.000 0.000 1.24 Clear
06/24/2022 03:09 AM 73.94 62.24 54.86 100.22 65.66 51.0 32.46 4.03 N 1.34 N 6.71 N No 0.000 No Precipitation 06/22/2022 02:12 AM 06/22/2022 02:19 AM 0.000 0.000 0.000 0.000 0.000 1.24 Clear
06/24/2022 03:10 AM 73.76 62.24 54.86 100.22 65.66 51.0 32.46 4.03 N 4.70 N 6.71 N No 0.000 No Precipitation 06/22/2022 02:12 AM 06/22/2022 02:19 AM 0.000 0.000 0.000 0.000 0.000 1.24 Clear
06/24/2022 03:11 AM 73.94 62.24 54.86 100.22 65.66 51.0 32.46 4.03 N 3.13 N 6.26 N No 0.000 No Precipitation 06/22/2022 02:12 AM 06/22/2022 02:19 AM 0.000 0.000 0.000 0.000 0.000 1.24 Clear
06/24/2022 03:12 AM 73.94 62.24 54.86 100.22 65.66 51.0 32.46 4.25 N 5.59 NW 6.26 N No 0.000 No Precipitation 06/22/2022 02:12 AM 06/22/2022 02:19 AM 0.000 0.000 0.000 0.000 0.000 1.24 Clear
06/24/2022 03:13 AM 73.94 62.06 54.68 100.22 65.66 51.0 32.46 4.92 N 5.37 N 6.93 N No 0.000 No Precipitation 06/22/2022 02:12 AM 06/22/2022 02:19 AM 0.000 0.000 0.000 0.000 0.000 1.24 Clear
06/24/2022 03:14 AM 73.94 62.42 55.22 100.22 65.66 51.0 32.46 6.04 N 6.49 N 8.28 NW No 0.000 No Precipitation 06/22/2022 02:12 AM 06/22/2022 02:19 AM 0.000 0.000 0.000 0.000 0.000 1.24 Clear
06/24/2022 03:15 AM 73.94 62.24 54.86 100.22 65.66 51.0 32.46 6.49 N 6.71 N 8.28 N No 0.000 No Precipitation 06/22/2022 02:12 AM 06/22/2022 02:19 AM 0.000 0.000 0.000 0.000 0.000 1.24 Clear
06/24/2022 03:16 AM 74.12 62.06 54.50 100.22 65.66 50.0 32.46 6.49 N 5.37 N 8.28 N No 0.000 No Precipitation 06/22/2022 02:12 AM 06/22/2022 02:19 AM 0.000 0.000 0.000 0.000 0.000 1.24 Clear
06/24/2022 03:17 AM 74.12 62.24 54.68 100.22 65.66 50.0 32.46 6.49 N 6.26 N 8.28 N No 0.000 No Precipitation 06/22/2022 02:12 AM 06/22/2022 02:19 AM 0.000 0.000 0.000 0.000 0.000 1.24 Clear
06/24/2022 03:18 AM 74.12 62.06 54.32 100.22 65.66 50.0 32.46 6.49 N 4.92 N 8.28 N No 0.000 No Precipitation 06/22/2022 02:12 AM 06/22/2022 02:19 AM 0.000 0.000 0.000 0.000 0.000 1.24 Clear
06/24/2022 03:19 AM 74.30 62.06 54.50 100.22 65.66 50.0 32.46 5.59 N 5.37 N 8.28 N No 0.000 No Precipitation 06/22/2022 02:12 AM 06/22/2022 02:19 AM 0.000 0.000 0.000 0.000 0.000 1.24 Clear
06/24/2022 03:20 AM 74.30 62.24 54.50 100.22 65.66 50.0 32.46 4.70 N 5.82 N 8.28 N No 0.000 No Precipitation 06/22/2022 02:12 AM 06/22/2022 02:19 AM 0.000 0.000 0.000 0.000 0.000 1.24 Clear
06/24/2022 03:21 AM 74.30 62.06 54.32 100.22 65.66 50.0 32.46 5.37 N 2.68 N 8.72 N No 0.000 No Precipitation 06/22/2022 02:12 AM 06/22/2022 02:19 AM 0.000 0.000 0.000 0.000 0.000 1.24 Clear
06/24/2022 03:22 AM 74.48 62.06 54.50 100.22 65.66 49.0 32.46 4.92 N 5.37 N 8.72 N No 0.000 No Precipitation 06/22/2022 02:12 AM 06/22/2022 02:19 AM 0.000 0.000 0.000 0.000 0.000 1.24 Clear
06/24/2022 03:23 AM 74.48 62.06 54.32 100.22 65.66 49.0 32.46 4.47 N 6.93 N 8.72 N No 0.000 No Precipitation 06/22/2022 02:12 AM 06/22/2022 02:19 AM 0.000 0.000 0.000 0.000 0.000 1.24 Clear
06/24/2022 03:24 AM 74.48 62.06 54.32 100.22 65.66 49.0 32.46 5.14 N 4.70 N 8.72 N No 0.000 No Precipitation 06/22/2022 02:12 AM 06/22/2022 02:19 AM 0.000 0.000 0.000 0.000 0.000 1.24 Clear
06/24/2022 03:25 AM 74.30 62.06 54.50 100.22 65.66 50.0 32.46 5.14 N 4.47 N 8.72 N No 0.000 No Precipitation 06/22/2022 02:12 AM 06/22/2022 02:19 AM 0.000 0.000 0.000 0.000 0.000 1.24 Clear
06/24/2022 03:26 AM 74.30 61.88 53.96 100.22 65.66 49.0 32.46 4.92 N 4.47 N 8.72 N No 0.000 No Precipitation 06/22/2022 02:12 AM 06/22/2022 02:19 AM 0.000 0.000 0.000 0.000 0.000 1.24 Clear
06/24/2022 03:27 AM 74.48 62.06 54.32 100.22 65.66 49.0 32.46 5.14 N 4.70 N 8.72 N No 0.000 No Precipitation 06/22/2022 02:12 AM 06/22/2022 02:19 AM 0.000 0.000 0.000 0.000 0.000 1.24 Clear
06/24/2022 03:28 AM 74.48 62.24 54.68 100.22 65.66 50.0 32.46 5.14 N 5.59 N 8.72 N No 0.000 No Precipitation 06/22/2022 02:12 AM 06/22/2022 02:19 AM 0.000 0.000 0.000 0.000 0.000 1.24 Clear
06/24/2022 03:29 AM 74.30 62.06 54.50 100.22 65.66 50.0 32.46 5.14 N 4.47 N 8.72 N No 0.000 No Precipitation 06/22/2022 02:12 AM 06/22/2022 02:19 AM 0.000 0.000 0.000 0.000 0.000 1.24 Clear
06/24/2022 03:30 AM 74.12 62.06 54.50 100.22 65.66 50.0 32.46 6.04 N 7.83 N 8.72 N No 0.000 No Precipitation 06/22/2022 02:12 AM 06/22/2022 02:19 AM 0.000 0.000 0.000 0.000 0.000 1.24 Clear
06/24/2022 03:31 AM 74.12 62.24 54.68 100.22 65.66 50.0 32.46 6.26 N 4.70 N 8.72 N No 0.000 No Precipitation 06/22/2022 02:12 AM 06/22/2022 02:19 AM 0.000 0.000 0.000 0.000 0.000 1.24 Clear
06/24/2022 03:32 AM 74.12 62.06 54.50 100.22 65.66 50.0 32.46 5.59 N 6.04 N 8.72 N No 0.000 No Precipitation 06/22/2022 02:12 AM 06/22/2022 02:19 AM 0.000 0.000 0.000 0.000 0.000 1.24 Clear
06/24/2022 03:33 AM 73.94 62.06 54.50 100.22 65.66 50.0 32.46 5.82 N 7.61 N 8.72 N No 0.000 No Precipitation 06/22/2022 02:12 AM 06/22/2022 02:19 AM 0.000 0.000 0.000 0.000 0.000 1.24 Clear
06/24/2022 03:34 AM 73.94 62.06 54.68 100.22 65.66 51.0 32.46 5.82 N 5.82 N 8.72 N No 0.000 No Precipitation 06/22/2022 02:12 AM 06/22/2022 02:19 AM 0.000 0.000 0.000 0.000 0.000 1.24 Clear
06/24/2022 03:35 AM 73.94 62.06 54.50 100.22 65.66 50.0 32.46 5.14 N 4.03 N 8.72 N No 0.000 No Precipitation 06/22/2022 02:12 AM 06/22/2022 02:19 AM 0.000 0.000 0.000 0.000 0.000 1.24 Clear
06/24/2022 03:36 AM 73.94 62.24 54.86 100.22 65.66 51.0 32.46 4.70 N 4.47 N 8.72 N No 0.000 No Precipitation 06/22/2022 02:12 AM 06/22/2022 02:19 AM 0.000 0.000 0.000 0.000 0.000 1.24 Clear
06/24/2022 03:37 AM 73.76 62.06 54.86 100.22 65.66 51.0 32.46 4.47 N 4.03 N 8.72 N No 0.000 No Precipitation 06/22/2022 02:12 AM 06/22/2022 02:19 AM 0.000 0.000 0.000 0.000 0.000 1.24 Clear
06/24/2022 03:38 AM 73.58 62.06 54.86 100.22 65.66 51.0 32.46 4.25 N 3.58 N 8.72 N No 0.000 No Precipitation 06/22/2022 02:12 AM 06/22/2022 02:19 AM 0.000 0.000 0.000 0.000 0.000 1.24 Clear
06/24/2022 03:39 AM 73.58 62.06 54.86 100.22 65.66 52.0 32.46 4.03 N 3.58 N 8.72 N No 0.000 No Precipitation 06/22/2022 02:12 AM 06/22/2022 02:19 AM 0.000 0.000 0.000 0.000 0.000 1.24 Clear
06/24/2022 03:40 AM 73.58 61.88 54.50 100.22 65.66 51.0 32.46 3.58 N 3.80 N 7.83 N No 0.000 No Precipitation 06/22/2022 02:12 AM 06/22/2022 02:19 AM 0.000 0.000 0.000 0.000 0.000 1.24 Clear
06/24/2022 03:41 AM 73.58 61.88 54.32 100.22 65.66 51.0 32.46 3.58 N 3.80 N 7.61 N No 0.000 No Precipitation 06/22/2022 02:12 AM 06/22/2022 02:19 AM 0.000 0.000 0.000 0.000 0.000 1.24 Clear
06/24/2022 03:42 AM 73.58 61.88 54.50 100.22 65.66 51.0 32.46 3.58 N 2.46 N 7.61 N No 0.000 No Precipitation 06/22/2022 02:12 AM 06/22/2022 02:19 AM 0.000 0.000 0.000 0.000 0.000 1.24 Clear
06/24/2022 03:43 AM 73.58 61.88 54.50 100.22 65.66 51.0 32.46 3.36 N 2.68 N 7.61 N No 0.000 No Precipitation 06/22/2022 02:12 AM 06/22/2022 02:19 AM 0.000 0.000 0.000 0.000 0.000 1.24 Clear
06/24/2022 03:44 AM 73.58 61.88 54.50 100.22 65.66 51.0 32.46 3.13 N 3.80 N 6.26 N No 0.000 No Precipitation 06/22/2022 02:12 AM 06/22/2022 02:19 AM 0.000 0.000 0.000 0.000 0.000 1.24 Clear
06/24/2022 03:45 AM 73.58 61.88 54.68 100.22 65.66 51.0 32.46 3.58 N 3.36 N 6.04 N No 0.000 No Precipitation 06/22/2022 02:12 AM 06/22/2022 02:19 AM 0.000 0.000 0.000 0.000 0.000 1.24 Clear
06/24/2022 03:46 AM 73.40 62.06 55.22 100.22 65.66 52.0 32.46 3.58 N 4.03 N 6.04 N No 0.000 No Precipitation 06/22/2022 02:12 AM 06/22/2022 02:19 AM 0.000 0.000 0.000 0.000 0.000 1.24 Clear
06/24/2022 03:47 AM 73.40 62.06 55.22 100.22 65.66 53.0 32.46 3.80 N 3.58 N 4.70 N No 0.000 No Precipitation 06/22/2022 02:12 AM 06/22/2022 02:19 AM 0.000 0.000 0.000 0.000 0.000 1.24 Clear
06/24/2022 03:48 AM 73.22 61.88 55.22 100.22 65.66 52.0 32.46 3.58 N 4.47 NE 4.70 N No 0.000 No Precipitation 06/22/2022 02:12 AM 06/22/2022 02:19 AM 0.000 0.000 0.000 0.000 0.000 1.24 Clear
06/24/2022 03:49 AM 73.22 61.70 54.86 100.22 65.66 52.0 32.46 3.58 N 4.03 NE 4.70 N No 0.000 No Precipitation 06/22/2022 02:12 AM 06/22/2022 02:19 AM 0.000 0.000 0.000 0.000 0.000 1.24 Clear
06/24/2022 03:50 AM 73.22 61.88 54.50 100.22 65.66 52.0 32.46 4.03 NE 4.03 NE 4.70 N No 0.000 No Precipitation 06/22/2022 02:12 AM 06/22/2022 02:19 AM 0.000 0.000 0.000 0.000 0.000 1.24 Clear
06/24/2022 03:51 AM 73.40 61.88 54.68 100.22 65.66 52.0 32.46 4.25 N 4.25 N 4.92 N No 0.000 No Precipitation 06/22/2022 02:12 AM 06/22/2022 02:19 AM 0.000 0.000 0.000 0.000 0.000 1.24 Clear
06/24/2022 03:52 AM 73.40 61.70 54.32 100.22 65.66 51.0 32.46 4.03 N 4.25 N 4.92 N No 0.000 No Precipitation 06/22/2022 02:12 AM 06/22/2022 02:19 AM 0.000 0.000 0.000 0.000 0.000 1.24 Clear
06/24/2022 03:53 AM 73.58 62.06 54.86 100.22 65.66 52.0 32.46 3.58 N 2.91 N 4.92 N No 0.000 No Precipitation 06/22/2022 02:12 AM 06/22/2022 02:19 AM 0.000 0.000 0.000 0.000 0.000 1.24 Clear
06/24/2022 03:54 AM 73.40 62.06 54.86 100.22 65.66 52.0 32.46 3.13 N 2.91 N 4.92 N No 0.000 No Precipitation 06/22/2022 02:12 AM 06/22/2022 02:19 AM 0.000 0.000 0.000 0.000 0.000 1.24 Clear
06/24/2022 03:55 AM 73.22 61.88 54.86 100.22 65.66 52.0 32.46 2.91 N 2.91 NE 4.92 N No 0.000 No Precipitation 06/22/2022 02:12 AM 06/22/2022 02:19 AM 0.000 0.000 0.000 0.000 0.000 1.24 Clear
06/24/2022 03:56 AM 73.22 61.88 54.86 100.22 65.66 53.0 32.46 2.91 NE 2.91 NE 4.92 N No 0.000 No Precipitation 06/22/2022 02:12 AM 06/22/2022 02:19 AM 0.000 0.000 0.000 0.000 0.000 1.24 Clear
06/24/2022 03:57 AM 73.04 61.88 54.68 100.22 65.66 52.0 32.46 2.91 NE 3.36 NE 4.92 N No 0.000 No Precipitation 06/22/2022 02:12 AM 06/22/2022 02:19 AM 0.000 0.000 0.000 0.000 0.000 1.24 Clear
06/24/2022 03:58 AM 72.86 62.06 55.22 100.22 65.66 53.0 32.46 3.13 NE 3.36 NE 4.92 N No 0.000 No Precipitation 06/22/2022 02:12 AM 06/22/2022 02:19 AM 0.000 0.000 0.000 0.000 0.000 1.24 Clear
06/24/2022 03:59 AM 72.86 61.70 54.86 100.22 65.66 53.0 32.46 3.36 NE 3.80 NE 4.92 N No 0.000 No Precipitation 06/22/2022 02:12 AM 06/22/2022 02:19 AM 0.000 0.000 0.000 0.000 0.000 1.24 Clear
06/24/2022 04:00 AM 72.86 61.70 54.68 100.22 65.66 53.0 32.46 3.36 NE 3.13 NE 4.70 N No 0.000 No Precipitation 06/22/2022 02:12 AM 06/22/2022 02:19 AM 0.000 0.000 0.000 0.000 0.000 1.24 Clear
06/24/2022 04:01 AM 73.04 62.06 55.22 100.22 65.66 53.0 32.46 3.13 NE 2.91 NE 4.70 N No 0.000 No Precipitation 06/22/2022 02:12 AM 06/22/2022 02:19 AM 0.000 0.000 0.000 0.000 0.000 1.24 Clear
06/24/2022 04:02 AM 72.86 62.06 55.40 100.22 65.66 54.0 32.46 2.91 NE 2.46 NE 4.25 N No 0.000 No Precipitation 06/22/2022 02:12 AM 06/22/2022 02:19 AM 0.000 0.000 0.000 0.000 0.000 1.24 Clear
06/24/2022 04:03 AM 72.86 61.70 54.68 100.22 65.66 53.0 32.46 2.46 NE 2.46 NE 4.03 NE No 0.000 No Precipitation 06/22/2022 02:12 AM 06/22/2022 02:19 AM 0.000 0.000 0.000 0.000 0.000 1.24 Clear
06/24/2022 04:04 AM 72.68 62.06 55.22 100.22 65.66 54.0 32.46 2.46 NE 2.46 NE 4.03 NE No 0.000 No Precipitation 06/22/2022 02:12 AM 06/22/2022 02:19 AM 0.000 0.000 0.000 0.000 0.000 1.24 Clear
06/24/2022 04:05 AM 72.50 62.60 56.66 100.22 65.66 57.0 32.46 2.46 NE 2.46 NE 4.03 NE No 0.000 No Precipitation 06/22/2022 02:12 AM 06/22/2022 02:19 AM 0.000 0.000 0.000 0.000 0.000 1.24 Clear
06/24/2022 04:06 AM 72.14 61.88 55.58 100.22 65.66 56.0 32.46 2.46 NE 2.24 NE 4.03 NE No 0.000 No Precipitation 06/22/2022 02:12 AM 06/22/2022 02:19 AM 0.000 0.000 0.000 0.000 0.000 1.24 Clear
06/24/2022 04:07 AM 72.14 61.88 55.40 100.22 65.66 55.0 32.46 2.46 NE 2.24 NE 4.03 NE No 0.000 No Precipitation 06/22/2022 02:12 AM 06/22/2022 02:19 AM 0.000 0.000 0.000 0.000 0.000 1.24 Clear
06/24/2022 04:08 AM 72.14 62.06 55.76 100.22 65.66 56.0 32.46 2.46 NE 2.46 NE 3.80 NE No 0.000 No Precipitation 06/22/2022 02:12 AM 06/22/2022 02:19 AM 0.000 0.000 0.000 0.000 0.000 1.24 Clear
06/24/2022 04:09 AM 72.14 62.06 55.94 100.22 65.66 57.0 32.46 2.68 NE 2.68 NE 3.36 NE No 0.000 No Precipitation 06/22/2022 02:12 AM 06/22/2022 02:19 AM 0.000 0.000 0.000 0.000 0.000 1.24 Clear
06/24/2022 04:10 AM 72.14 62.06 55.94 100.22 65.66 57.0 32.46 2.91 NE 2.91 NE 3.36 NE No 0.000 No Precipitation 06/22/2022 02:12 AM 06/22/2022 02:19 AM 0.000 0.000 0.000 0.000 0.000 1.24 Clear
06/24/2022 04:11 AM 72.32 62.06 55.58 100.22 65.66 56.0 32.46 2.68 NE 2.01 NE 3.36 NE No 0.000 No Precipitation 06/22/2022 02:12 AM 06/22/2022 02:19 AM 0.000 0.000 0.000 0.000 0.000 1.24 Clear
06/24/2022 04:12 AM 72.32 62.24 56.12 100.22 65.66 56.0 32.46 2.24 NE 1.57 NE 3.36 NE No 0.000 No Precipitation 06/22/2022 02:12 AM 06/22/2022 02:19 AM 0.000 0.000 0.000 0.000 0.000 1.24 Clear
06/24/2022 04:13 AM 72.32 62.06 55.58 100.22 65.66 55.0 32.46 2.01 NE 1.79 N 3.36 NE No 0.000 No Precipitation 06/22/2022 02:12 AM 06/22/2022 02:19 AM 0.000 0.000 0.000 0.000 0.000 1.24 Clear
06/24/2022 04:14 AM 72.32 62.06 55.94 100.22 65.66 56.0 32.46 1.79 N 1.79 N 3.36 NE No 0.000 No Precipitation 06/22/2022 02:12 AM 06/22/2022 02:19 AM 0.000 0.000 0.000 0.000 0.000 1.24 Clear
06/24/2022 04:15 AM 72.14 62.42 56.30 100.22 65.66 57.0 32.46 1.79 NE 1.79 NE 3.36 NE No 0.000 No Precipitation 06/22/2022 02:12 AM 06/22/2022 02:19 AM 0.000 0.000 0.000 0.000 0.000 1.24 Clear
06/24/2022 04:16 AM 71.96 62.06 55.94 100.22 65.66 57.0 32.44 1.79 NE 1.57 NE 3.36 NE No 0.000 No Precipitation 06/22/2022 02:12 AM 06/22/2022 02:19 AM 0.000 0.000 0.000 0.000 0.000 1.24 Clear
06/24/2022 04:17 AM 71.78 62.24 56.30 100.22 65.66 58.0 32.46 1.57 NE 1.34 NE 3.36 NE No 0.000 No Precipitation 06/22/2022 02:12 AM 06/22/2022 02:19 AM 0.000 0.000 0.000 0.000 0.000 1.24 Clear
06/24/2022 04:18 AM 71.60 61.88 55.76 100.22 65.66 57.0 32.46 1.34 NE 0.67 NW 3.36 NE No 0.000 No Precipitation 06/22/2022 02:12 AM 06/22/2022 02:19 AM 0.000 0.000 0.000 0.000 0.000 1.24 Clear
06/24/2022 04:19 AM 71.78 61.70 55.58 100.22 65.66 56.0 32.46 1.12 NE 1.12 NW 2.91 NE No 0.000 No Precipitation 06/22/2022 02:12 AM 06/22/2022 02:19 AM 0.000 0.000 0.000 0.000 0.000 1.24 Clear
06/24/2022 04:20 AM 71.78 61.88 55.76 100.22 65.66 57.0 32.46 0.89 NE 0.22 NE 2.46 NE No 0.000 No Precipitation 06/22/2022 02:12 AM 06/22/2022 02:19 AM 0.000 0.000 0.000 0.000 0.000 1.24 Clear
06/24/2022 04:21 AM 71.42 61.52 55.40 100.22 65.66 57.0 32.46 0.67 N 0.45 N 2.46 NE No 0.000 No Precipitation 06/22/2022 02:12 AM 06/22/2022 02:19 AM 0.000 0.000 0.000 0.000 0.000 1.24 Clear
06/24/2022 04:22 AM 71.06 61.34 55.22 100.22 65.66 57.0 32.46 0.67 NE 0.89 NW 2.24 NE No 0.000 No Precipitation 06/22/2022 02:12 AM 06/22/2022 02:19 AM 0.000 0.000 0.000 0.000 0.000 1.24 Clear
06/24/2022 04:23 AM 71.06 61.52 55.40 100.22 65.66 58.0 32.46 0.89 W 0.45 NW 2.24 NE No 0.000 No Precipitation 06/22/2022 02:12 AM 06/22/2022 02:19 AM 0.000 0.000 0.000 0.000 0.000 1.24 Clear
06/24/2022 04:24 AM 71.06 61.34 55.40 100.22 65.66 57.0 32.46 0.89 NE 1.34 N 2.01 NE No 0.000 No Precipitation 06/22/2022 02:12 AM 06/22/2022 02:19 AM 0.000 0.000 0.000 0.000 0.000 1.24 Clear
06/24/2022 04:25 AM 71.06 61.52 55.40 100.22 65.66 57.0 32.46 1.12 N 0.89 NE 2.01 NE No 0.000 No Precipitation 06/22/2022 02:12 AM 06/22/2022 02:19 AM 0.000 0.000 0.000 0.000 0.000 1.24 Clear
06/24/2022 04:26 AM 71.24 61.34 55.04 100.22 65.66 56.0 32.46 0.89 N 0.45 E 1.79 NE No 0.000 No Precipitation 06/22/2022 02:12 AM 06/22/2022 02:19 AM 0.000 0.000 0.000 0.000 0.000 1.24 Clear
06/24/2022 04:27 AM 70.88 61.16 54.86 100.22 65.66 56.0 32.46 0.89 E 1.12 SE 1.79 E No 0.000 No Precipitation 06/22/2022 02:12 AM 06/22/2022 02:19 AM 0.000 0.000 0.000 0.000 0.000 1.24 Clear
06/24/2022 04:28 AM 70.52 60.98 54.86 100.22 65.66 57.0 32.44 1.57 NE 2.01 E 2.46 E No 0.000 No Precipitation 06/22/2022 02:12 AM 06/22/2022 02:19 AM 0.000 0.000 0.000 0.000 0.000 1.24 Clear
06/24/2022 04:29 AM 70.52 61.16 55.40 100.22 65.66 58.0 32.44 2.01 E 2.01 E 2.46 E No 0.000 No Precipitation 06/22/2022 02:12 AM 06/22/2022 02:19 AM 0.000 0.000 0.000 0.000 0.000 1.24 Clear
06/24/2022 04:30 AM 70.52 61.34 55.58 100.22 65.66 59.0 32.46 2.01 E 2.01 NE 2.46 E No 0.000 No Precipitation 06/22/2022 02:12 AM 06/22/2022 02:19 AM 0.000 0.000 0.000 0.000 0.000 1.24 Clear
06/24/2022 04:31 AM 70.52 61.34 55.58 100.22 65.66 59.0 32.46 2.01 NE 3.13 NE 3.13 E No 0.000 No Precipitation 06/22/2022 02:12 AM 06/22/2022 02:19 AM 0.000 0.000 0.000 0.000 0.000 1.24 Clear
06/24/2022 04:32 AM 70.52 61.52 55.76 100.22 65.66 59.0 32.46 2.46 NE 2.46 E 3.36 NE No 0.000 No Precipitation 06/22/2022 02:12 AM 06/22/2022 02:19 AM 0.000 0.000 0.000 0.000 0.000 1.24 Clear
06/24/2022 04:33 AM 70.70 61.52 55.76 100.22 65.66 59.0 32.46 2.46 E 2.01 E 3.36 NE No 0.000 No Precipitation 06/22/2022 02:12 AM 06/22/2022 02:19 AM 0.000 0.000 0.000 0.000 0.000 1.24 Clear
06/24/2022 04:34 AM 70.70 61.34 55.58 100.22 65.66 59.0 32.46 1.79 E 1.79 E 3.36 NE No 0.000 No Precipitation 06/22/2022 02:12 AM 06/22/2022 02:19 AM 0.000 0.000 0.000 0.000 0.000 1.24 Clear
06/24/2022 04:35 AM 70.34 61.34 55.76 100.22 65.66 60.0 32.46 1.34 E 0.89 E 3.36 NE No 0.000 No Precipitation 06/22/2022 02:12 AM 06/22/2022 02:19 AM 0.000 0.000 0.000 0.000 0.000 1.24 Clear
06/24/2022 04:36 AM 69.62 60.98 55.58 100.22 65.66 61.0 32.46 0.89 E 1.12 S 3.36 NE No 0.000 No Precipitation 06/22/2022 02:12 AM 06/22/2022 02:19 AM 0.000 0.000 0.000 0.000 0.000 1.24 Clear
06/24/2022 04:37 AM 68.90 60.80 55.76 100.22 65.66 62.0 32.46 0.89 SW 1.34 S 3.36 NE No 0.000 No Precipitation 06/22/2022 02:12 AM 06/22/2022 02:19 AM 0.000 0.000 0.000 0.000 0.000 1.24 Clear
06/24/2022 04:38 AM 68.18 60.44 55.58 100.22 65.66 64.0 32.46 0.89 S 1.12 S 3.36 NE No 0.000 No Precipitation 06/22/2022 02:12 AM 06/22/2022 02:19 AM 0.000 0.000 0.000 0.000 0.000 1.24 Clear
06/24/2022 04:39 AM 67.64 60.44 55.76 100.22 65.66 65.0 32.46 0.89 SW 1.34 SW 3.36 NE No 0.000 No Precipitation 06/22/2022 02:12 AM 06/22/2022 02:19 AM 0.000 0.000 0.000 0.000 0.000 1.24 Clear
06/24/2022 04:40 AM 67.28 60.26 55.76 100.22 65.66 66.0 32.46 1.12 SW 1.57 SW 3.36 NE No 0.000 No Precipitation 06/22/2022 02:12 AM 06/22/2022 02:19 AM 0.000 0.000 0.000 0.000 0.000 1.24 Clear
06/24/2022 04:41 AM 66.92 60.08 55.76 100.22 65.66 67.0 32.46 1.57 SW 1.57 SW 2.68 E No 0.000 No Precipitation 06/22/2022 02:12 AM 06/22/2022 02:19 AM 0.000 0.000 0.000 0.000 0.000 1.24 Clear
06/24/2022 04:42 AM 66.74 60.26 55.94 100.22 65.66 68.0 32.46 1.34 SW 1.12 SW 2.01 E No 0.000 No Precipitation 06/22/2022 02:12 AM 06/22/2022 02:19 AM 0.000 0.000 0.000 0.000 0.000 1.24 Clear
06/24/2022 04:43 AM 66.56 60.08 55.94 100.22 65.66 69.0 32.46 1.34 SW 1.34 SW 2.01 E No 0.000 No Precipitation 06/22/2022 02:12 AM 06/22/2022 02:19 AM 0.000 0.000 0.000 0.000 0.000 1.24 Clear
06/24/2022 04:44 AM 66.56 60.26 56.12 100.22 65.66 69.0 32.46 1.34 SW 1.79 SW 2.01 SW No 0.000 No Precipitation 06/22/2022 02:12 AM 06/22/2022 02:19 AM 0.000 0.000 0.000 0.000 0.000 1.24 Clear
06/24/2022 04:45 AM 66.38 60.08 56.12 100.22 65.66 69.0 32.46 1.79 SW 2.01 SW 2.24 SW No 0.000 No Precipitation 06/22/2022 02:12 AM 06/22/2022 02:19 AM 0.000 0.000 0.000 0.000 0.000 1.24 Clear
06/24/2022 04:46 AM 66.38 60.26 56.30 100.22 65.66 70.0 32.44 2.24 SW 2.91 SW 2.91 SW No 0.000 No Precipitation 06/22/2022 02:12 AM 06/22/2022 02:19 AM 0.000 0.000 0.000 0.000 0.000 1.24 Clear
06/24/2022 04:47 AM 66.38 60.26 56.30 100.22 65.66 70.0 32.46 2.91 SW 3.36 SW 3.58 SW No 0.000 No Precipitation 06/22/2022 02:12 AM 06/22/2022 02:19 AM 0.000 0.000 0.000 0.000 0.000 1.24 Clear
06/24/2022 04:48 AM 66.38 60.26 56.48 100.22 65.66 70.0 32.46 3.36 SW 3.80 SW 3.80 SW No 0.000 No Precipitation 06/22/2022 02:12 AM 06/22/2022 02:19 AM 0.000 0.000 0.000 0.000 0.000 1.24 Clear
06/24/2022 04:49 AM 66.38 60.26 56.48 100.22 65.66 70.0 32.46 3.36 SW 2.91 SW 3.80 SW No 0.000 No Precipitation 06/22/2022 02:12 AM 06/22/2022 02:19 AM 0.000 0.000 0.000 0.000 0.000 1.24 Clear
06/24/2022 04:50 AM 66.38 60.44 56.48 100.22 65.66 70.0 32.46 2.91 SW 2.68 SW 3.80 SW No 0.000 No Precipitation 06/22/2022 02:12 AM 06/22/2022 02:19 AM 0.000 0.000 0.000 0.000 0.000 1.24 Clear
06/24/2022 04:51 AM 66.56 60.44 56.66 100.22 65.66 70.0 32.46 2.68 SW 2.91 SW 3.80 SW No 0.000 No Precipitation 06/22/2022 02:12 AM 06/22/2022 02:19 AM 0.000 0.000 0.000 0.000 0.000 1.24 Clear
06/24/2022 04:52 AM 66.56 60.44 56.66 100.22 65.66 70.0 32.46 2.68 SW 2.91 SW 3.80 SW No 0.000 No Precipitation 06/22/2022 02:12 AM 06/22/2022 02:19 AM 0.000 0.000 0.000 0.000 0.000 1.24 Clear
06/24/2022 04:53 AM 66.56 60.62 56.66 100.22 65.66 70.0 32.46 3.13 SW 3.36 SW 3.80 SW No 0.000 No Precipitation 06/22/2022 02:12 AM 06/22/2022 02:19 AM 0.000 0.000 0.000 0.000 0.000 1.24 Clear
06/24/2022 04:54 AM 66.74 60.62 56.84 100.22 65.66 70.0 32.46 3.36 SW 3.36 SW 3.80 SW No 0.000 No Precipitation 06/22/2022 02:12 AM 06/22/2022 02:19 AM 0.000 0.000 0.000 0.000 0.000 1.24 Clear
06/24/2022 04:55 AM 66.74 60.62 56.84 100.22 65.66 70.0 32.46 3.13 SW 3.13 SW 3.80 SW No 0.000 No Precipitation 06/22/2022 02:12 AM 06/22/2022 02:19 AM 0.000 0.000 0.000 0.000 0.000 1.24 Clear
06/24/2022 04:56 AM 66.56 60.44 56.66 100.22 65.66 70.0 32.46 3.13 SW 2.68 SW 3.80 SW No 0.000 No Precipitation 06/22/2022 02:12 AM 06/22/2022 02:19 AM 0.000 0.000 0.000 0.000 0.000 1.24 Clear
06/24/2022 04:57 AM 66.56 60.44 56.66 100.22 65.66 70.0 32.46 2.91 SW 2.46 SW 3.80 SW No 0.000 No Precipitation 06/22/2022 02:12 AM 06/22/2022 02:19 AM 0.000 0.000 0.000 0.000 0.000 1.24 Clear
06/24/2022 04:58 AM 66.38 60.44 56.84 100.22 65.66 71.0 32.46 2.46 SW 2.01 W 3.80 SW No 0.000 No Precipitation 06/22/2022 02:12 AM 06/22/2022 02:19 AM 0.000 0.000 0.000 0.000 0.000 1.24 Clear
06/24/2022 04:59 AM 66.38 60.62 57.02 100.22 65.66 71.0 32.46 2.01 SW 2.01 W 3.58 SW No 0.000 No Precipitation 06/22/2022 02:12 AM 06/22/2022 02:19 AM 0.000 0.000 0.000 0.000 0.000 1.24 Clear
06/24/2022 05:00 AM 66.38 60.62 57.02 100.22 65.66 71.0 32.46 2.24 W 3.13 W 3.58 SW No 0.000 No Precipitation 06/22/2022 02:12 AM 06/22/2022 02:19 AM 0.000 0.000 0.000 0.000 0.000 1.24 Clear
06/24/2022 05:01 AM 66.38 60.62 57.02 100.22 65.66 71.0 32.46 2.68 W 3.13 SW 3.58 SW No 0.000 No Precipitation 06/22/2022 02:12 AM 06/22/2022 02:19 AM 0.000 0.000 0.000 0.000 0.000 1.24 Clear
06/24/2022 05:02 AM 66.38 60.62 57.02 100.22 65.66 71.0 32.46 3.13 SW 3.36 W 3.58 SW No 0.000 No Precipitation 06/22/2022 02:12 AM 06/22/2022 02:19 AM 0.000 0.000 0.000 0.000 0.000 1.24 Clear
06/24/2022 05:03 AM 66.38 60.62 57.02 100.22 65.66 72.0 32.46 3.13 W 3.13 W 3.58 W No 0.000 No Precipitation 06/22/2022 02:12 AM 06/22/2022 02:19 AM 0.000 0.000 0.000 0.000 0.000 1.24 Clear
06/24/2022 05:04 AM 66.38 60.62 57.02 100.22 65.66 72.0 32.46 3.36 W 3.36 W 3.58 W No 0.000 No Precipitation 06/22/2022 02:12 AM 06/22/2022 02:19 AM 0.000 0.000 0.000 0.000 0.000 1.24 Clear
06/24/2022 05:05 AM 66.74 60.80 57.02 100.22 65.66 71.0 32.44 3.13 SW 3.13 SW 3.58 W No 0.000 No Precipitation 06/22/2022 02:12 AM 06/22/2022 02:19 AM 0.000 0.000 0.000 0.000 0.000 1.24 Clear
06/24/2022 05:06 AM 66.74 60.62 56.66 100.22 65.66 70.0 32.46 3.13 SW 2.91 W 3.58 W No 0.000 No Precipitation 06/22/2022 02:12 AM 06/22/2022 02:19 AM 0.000 0.000 0.000 0.000 0.000 1.24 Clear
06/24/2022 05:07 AM 66.74 60.80 56.84 100.22 65.66 70.0 32.46 2.91 W 2.68 W 3.58 W No 0.000 No Precipitation 06/22/2022 02:12 AM 06/22/2022 02:19 AM 0.000 0.000 0.000 0.000 0.000 1.24 Clear
06/24/2022 05:08 AM 66.74 60.62 56.84 100.22 65.66 70.0 32.46 2.68 W 2.46 W 3.58 W No 0.000 No Precipitation 06/22/2022 02:12 AM 06/22/2022 02:19 AM 0.000 0.000 0.000 0.000 0.000 1.24 Clear
06/24/2022 05:09 AM 66.56 60.62 56.66 100.22 65.66 70.0 32.46 2.68 W 2.46 W 3.58 W No 0.000 No Precipitation 06/22/2022 02:12 AM 06/22/2022 02:19 AM 0.000 0.000 0.000 0.000 0.000 1.24 Clear
06/24/2022 05:10 AM 66.56 60.44 56.66 100.22 65.66 70.0 32.46 2.46 W 2.91 W 3.58 W No 0.000 No Precipitation 06/22/2022 02:12 AM 06/22/2022 02:19 AM 0.000 0.000 0.000 0.000 0.000 1.24 Clear
06/24/2022 05:11 AM 66.56 60.44 56.66 100.22 65.66 70.0 32.46 2.68 W 2.91 W 3.58 W No 0.000 No Precipitation 06/22/2022 02:12 AM 06/22/2022 02:19 AM 0.000 0.000 0.000 0.000 0.000 1.24 Clear
06/24/2022 05:12 AM 66.56 60.44 56.66 100.22 65.66 70.0 32.46 2.68 W 3.13 W 3.36 SW No 0.000 No Precipitation 06/22/2022 02:12 AM 06/22/2022 02:19 AM 0.000 0.000 0.000 0.000 0.000 1.24 Clear
06/24/2022 05:13 AM 66.56 60.62 56.84 100.22 65.66 71.0 32.46 2.91 W 2.91 W 3.36 SW No 0.000 No Precipitation 06/22/2022 02:12 AM 06/22/2022 02:19 AM 0.000 0.000 0.000 0.000 0.000 1.24 Clear
06/24/2022 05:14 AM 66.56 60.62 57.02 100.22 65.66 71.0 32.44 2.91 W 2.91 W 3.36 W No 0.000 No Precipitation 06/22/2022 02:12 AM 06/22/2022 02:19 AM 0.000 0.000 0.000 0.000 0.000 1.24 Clear
06/24/2022 05:15 AM 66.56 60.62 57.02 100.22 65.66 71.0 32.46 2.68 W 2.68 W 3.36 W No 0.000 No Precipitation 06/22/2022 02:12 AM 06/22/2022 02:19 AM 0.000 0.000 0.000 0.000 0.000 1.24 Clear
06/24/2022 05:16 AM 66.74 60.80 57.02 100.22 65.66 71.0 32.46 2.46 W 1.79 W 3.36 W No 0.000 No Precipitation 06/22/2022 02:12 AM 06/22/2022 02:19 AM 0.000 0.000 0.000 0.000 0.000 1.24 Clear
06/24/2022 05:17 AM 66.74 60.44 56.48 100.22 65.66 69.0 32.46 2.24 W 1.57 W 3.36 W No 0.000 No Precipitation 06/22/2022 02:12 AM 06/22/2022 02:19 AM 0.000 0.000 0.000 0.000 0.000 1.24 Clear
06/24/2022 05:18 AM 66.74 60.62 56.66 100.22 65.66 70.0 32.46 2.01 W 2.01 SW 3.36 W No 0.000 No Precipitation 06/22/2022 02:12 AM 06/22/2022 02:19 AM 0.000 0.000 0.000 0.000 0.000 1.24 Clear
06/24/2022 05:19 AM 66.74 60.80 57.20 100.22 65.66 71.0 32.46 2.01 SW 2.01 SW 3.36 W No 0.000 No Precipitation 06/22/2022 02:12 AM 06/22/2022 02:19 AM 0.000 0.000 0.000 0.000 0.000 1.24 Clear
06/24/2022 05:20 AM 66.56 60.98 57.38 100.22 65.66 72.0 32.46 2.01 SW 2.01 SW 3.36 W No 0.000 No Precipitation 06/22/2022 02:12 AM 06/22/2022 02:19 AM 0.000 0.000 0.000 0.000 0.000 1.24 Clear
06/24/2022 05:21 AM 66.56 60.98 57.56 100.22 65.66 73.0 32.46 2.01 SW 2.01 SW 3.36 W No 0.000 No Precipitation 06/22/2022 02:12 AM 06/22/2022 02:19 AM 0.000 0.000 0.000 0.000 0.000 1.24 Clear
06/24/2022 05:22 AM 66.38 60.98 57.56 100.22 65.66 73.0 32.46 2.01 SW 2.01 SW 3.36 W No 0.000 No Precipitation 06/22/2022 02:12 AM 06/22/2022 02:19 AM 0.000 0.000 0.000 0.000 0.000 1.24 Clear
06/24/2022 05:23 AM 66.20 60.80 57.56 100.22 65.66 73.0 32.46 1.79 SW 1.34 S 2.91 W No 0.000 No Precipitation 06/22/2022 02:12 AM 06/22/2022 02:19 AM 0.000 0.000 0.000 0.000 0.000 1.24 Clear
06/24/2022 05:24 AM 66.02 60.98 57.74 100.22 65.66 74.0 32.46 1.57 S 1.34 S 2.68 W No 0.000 No Precipitation 06/22/2022 02:12 AM 06/22/2022 02:19 AM 0.000 0.000 0.000 0.000 0.000 1.24 Clear
06/24/2022 05:25 AM 65.84 60.62 57.38 100.22 65.66 74.0 32.46 1.57 S 1.79 S 2.68 W No 0.000 No Precipitation 06/22/2022 02:12 AM 06/22/2022 02:19 AM 0.000 0.000 0.000 0.000 0.000 1.24 Clear
06/24/2022 05:26 AM 66.02 60.62 57.20 100.22 65.66 73.0 32.46 1.79 S 2.01 S 2.46 W No 0.000 No Precipitation 06/22/2022 02:12 AM 06/22/2022 02:19 AM 0.000 0.000 0.000 0.000 0.000 1.24 Clear
06/24/2022 05:27 AM 66.02 60.98 57.74 100.22 65.66 74.0 32.46 2.01 S 2.24 S 2.46 S No 0.000 No Precipitation 06/22/2022 02:12 AM 06/22/2022 02:19 AM 0.000 0.000 0.000 0.000 0.000 1.24 Clear
06/24/2022 05:28 AM 66.02 60.98 57.92 100.22 65.66 74.0 32.46 2.24 S 2.01 S 2.46 S No 0.000 No Precipitation 06/22/2022 02:12 AM 06/22/2022 02:19 AM 0.000 0.000 0.000 0.000 0.000 1.24 Clear
06/24/2022 05:29 AM 66.20 61.52 58.64 100.22 65.66 76.0 32.46 2.01 S 1.79 S 2.46 S No 0.000 No Precipitation 06/22/2022 02:12 AM 06/22/2022 02:19 AM 0.000 0.000 0.000 0.000 0.000 1.24 Clear
06/24/2022 05:30 AM 66.38 61.34 58.28 100.22 65.66 75.0 32.46 2.01 S 2.01 S 2.46 S No 0.000 No Precipitation 06/22/2022 02:12 AM 06/22/2022 02:19 AM 0.000 0.000 0.000 0.000 0.000 1.24 Clear
06/24/2022 05:31 AM 66.56 61.34 58.10 100.22 65.66 74.0 32.46 2.01 S 1.57 S 2.46 S No 0.000 No Precipitation 06/22/2022 02:12 AM 06/22/2022 02:19 AM 0.000 0.000 0.000 0.000 0.000 1.24 Clear
06/24/2022 05:32 AM 66.56 61.70 58.82 100.22 65.66 76.0 32.46 1.57 S 1.57 S 2.46 S No 0.000 No Precipitation 06/22/2022 02:12 AM 06/22/2022 02:19 AM 0.000 0.000 0.000 0.000 0.000 1.24 Clear
06/24/2022 05:33 AM 66.56 61.52 58.28 100.22 65.66 75.0 32.46 1.57 S 1.57 SE 2.46 S No 0.000 No Precipitation 06/22/2022 02:12 AM 06/22/2022 02:19 AM 0.000 0.000 0.000 0.000 0.000 1.24 Clear
06/24/2022 05:34 AM 66.56 61.52 58.46 100.22 65.66 75.0 32.46 1.57 SE 1.57 SE 2.46 S No 0.000 No Precipitation 06/22/2022 02:12 AM 06/22/2022 02:19 AM 0.000 0.000 0.000 0.000 0.000 1.24 Clear
06/24/2022 05:35 AM 66.74 61.52 58.46 100.22 65.66 75.0 32.46 1.57 SE 1.79 SE 2.46 S No 0.000 No Precipitation 06/22/2022 02:12 AM 06/22/2022 02:19 AM 0.000 0.000 0.000 0.000 0.000 1.24 Clear
06/24/2022 05:36 AM 66.74 61.70 58.82 100.22 65.66 75.0 32.46 1.57 SE 1.57 SE 2.46 S No 0.000 No Precipitation 06/22/2022 02:12 AM 06/22/2022 02:19 AM 0.000 0.000 0.000 0.000 0.000 1.24 Clear
06/24/2022 05:37 AM 66.56 61.70 58.64 100.22 65.66 75.0 32.46 1.79 SE 1.57 SE 2.46 S No 0.000 No Precipitation 06/22/2022 02:12 AM 06/22/2022 02:19 AM 0.000 0.000 0.000 0.000 0.000 1.24 Clear
06/24/2022 05:38 AM 66.56 61.34 58.28 100.22 65.66 74.0 32.46 1.79 SE 2.01 SE 2.46 S No 0.000 No Precipitation 06/22/2022 02:12 AM 06/22/2022 02:19 AM 0.000 0.000 0.000 0.000 0.000 1.24 Clear
06/24/2022 05:39 AM 66.56 61.52 58.28 100.22 65.66 75.0 32.46 1.79 SE 2.24 SE 2.46 S No 0.000 No Precipitation 06/22/2022 02:12 AM 06/22/2022 02:19 AM 0.000 0.000 0.000 0.000 0.000 1.24 Clear
06/24/2022 05:40 AM 66.56 61.16 57.74 100.22 65.66 73.0 32.44 2.01 SE 2.01 SE 2.46 SE No 0.000 No Precipitation 06/22/2022 02:12 AM 06/22/2022 02:19 AM 0.000 0.000 0.000 0.000 0.000 1.24 Clear
06/24/2022 05:41 AM 66.74 61.16 57.74 100.22 65.66 72.0 32.46 2.24 SE 2.46 SE 2.46 SE No 0.000 No Precipitation 06/22/2022 02:12 AM 06/22/2022 02:19 AM 0.000 0.000 0.000 0.000 0.000 1.24 Clear
06/24/2022 05:42 AM 66.92 61.16 57.56 100.22 65.66 71.0 32.46 2.24 SE 2.46 SE 2.91 SE No 0.000 No Precipitation 06/22/2022 02:12 AM 06/22/2022 02:19 AM 0.000 0.000 0.000 0.000 0.000 1.24 Clear
06/24/2022 05:43 AM 67.10 61.34 57.92 100.22 65.66 72.0 32.46 2.46 S 2.68 SE 2.91 SE No 0.000 No Precipitation 06/22/2022 02:12 AM 06/22/2022 02:19 AM 0.000 0.000 0.000 0.000 0.000 1.24 Clear
06/24/2022 05:44 AM 67.10 61.52 57.92 100.22 65.66 72.0 32.46 2.68 SE 2.46 SE 3.13 SE No 0.000 No Precipitation 06/22/2022 02:12 AM 06/22/2022 02:19 AM 0.000 0.000 0.000 0.000 0.000 1.24 Clear
06/24/2022 05:45 AM 67.28 61.34 57.74 100.22 65.66 71.0 32.44 2.68 SE 2.01 SE 3.13 SE No 0.000 No Precipitation 06/22/2022 02:12 AM 06/22/2022 02:19 AM 0.000 0.000 0.000 0.000 0.000 1.24 Clear
06/24/2022 05:46 AM 67.28 61.34 57.56 100.22 65.66 70.0 32.46 2.46 SE 2.01 S 3.13 SE No 0.000 No Precipitation 06/22/2022 02:12 AM 06/22/2022 02:19 AM 0.000 0.000 0.000 0.000 0.000 1.24 Clear
06/24/2022 05:47 AM 67.46 61.34 57.56 100.22 65.66 70.0 32.46 2.46 SE 2.46 SE 3.13 SE No 0.000 No Precipitation 06/22/2022 02:12 AM 06/22/2022 02:19 AM 0.000 0.000 0.000 0.000 0.000 1.24 Clear
06/24/2022 05:48 AM 67.46 61.70 58.28 100.22 65.66 72.0 32.46 2.24 SE 2.46 SE 3.13 SE No 0.000 No Precipitation 06/22/2022 02:12 AM 06/22/2022 02:19 AM 0.000 0.000 0.000 0.000 0.000 1.24 Clear
06/24/2022 05:49 AM 67.28 61.70 58.46 100.22 65.66 73.0 32.46 2.24 SE 2.24 SE 3.13 SE No 0.000 No Precipitation 06/22/2022 02:12 AM 06/22/2022 02:19 AM 0.000 0.000 0.000 0.000 0.000 1.24 Clear
06/24/2022 05:50 AM 67.10 61.70 58.46 100.22 65.66 74.0 32.46 2.01 SE 1.79 SE 3.13 SE No 0.000 No Precipitation 06/22/2022 02:12 AM 06/22/2022 02:19 AM 0.000 0.000 0.000 0.000 0.000 1.24 Clear
06/24/2022 05:51 AM 66.74 61.52 58.28 100.22 65.66 74.0 32.46 2.01 SE 2.46 SE 3.13 SE No 0.000 No Precipitation 06/22/2022 02:12 AM 06/22/2022 02:19 AM 0.000 0.000 0.000 0.000 0.000 1.24 Clear
06/24/2022 05:52 AM 66.56 61.34 58.28 100.22 65.66 74.0 32.46 2.46 SE 2.46 SE 3.13 SE No 0.000 No Precipitation 06/22/2022 02:12 AM 06/22/2022 02:19 AM 0.000 0.000 0.000 0.000 0.000 1.24 Clear
06/24/2022 05:53 AM 66.38 61.34 58.28 100.22 65.66 75.0 32.46 2.68 SE 2.68 SE 3.13 SE No 0.000 No Precipitation 06/22/2022 02:12 AM 06/22/2022 02:19 AM 0.000 0.000 0.000 0.000 0.000 1.24 Clear
06/24/2022 05:54 AM 66.02 61.16 58.28 100.22 65.66 76.0 32.46 2.68 SE 2.91 SE 2.91 SE No 0.000 No Precipitation 06/22/2022 02:12 AM 06/22/2022 02:19 AM 0.000 0.000 0.000 0.000 0.000 1.24 Clear
06/24/2022 05:55 AM 65.66 61.16 58.46 100.22 65.66 77.0 32.46 3.13 SE 3.58 SE 3.58 SE No 0.000 No Precipitation 06/22/2022 02:12 AM 06/22/2022 02:19 AM 0.000 0.000 0.000 0.000 0.000 1.24 Clear
06/24/2022 05:56 AM 65.66 61.52 59.00 100.22 65.66 79.0 32.46 3.58 SE 4.25 SE 4.25 SE No 0.000 No Precipitation 06/22/2022 02:12 AM 06/22/2022 02:19 AM 0.000 0.000 0.000 0.000 0.000 1.24 Clear
06/24/2022 05:57 AM 65.66 61.52 59.00 100.22 65.66 80.0 32.46 4.03 SE 4.03 SE 4.25 SE No 0.000 No Precipitation 06/22/2022 02:12 AM 06/22/2022 02:19 AM 0.000 0.000 0.000 0.000 0.000 1.24 Clear
06/24/2022 05:58 AM 65.48 61.34 59.18 100.22 65.48 79.0 32.44 4.03 SE 3.80 SE 4.25 SE No 0.000 No Precipitation 06/22/2022 02:12 AM 06/22/2022 02:19 AM 0.000 0.000 0.000 0.000 0.000 1.24 Clear
06/24/2022 05:59 AM 65.48 61.52 58.82 100.22 65.48 79.0 32.46 4.03 SE 4.03 SE 4.25 SE No 0.000 No Precipitation 06/22/2022 02:12 AM 06/22/2022 02:19 AM 0.000 0.000 0.000 0.000 0.000 1.24 Clear
06/24/2022 06:00 AM 65.48 61.52 59.18 100.22 65.48 80.0 32.46 4.03 SE 3.80 SE 4.25 SE No 0.000 No Precipitation 06/22/2022 02:12 AM 06/22/2022 02:19 AM 0.000 0.000 0.000 0.000 0.000 1.24 Clear
06/24/2022 06:01 AM 65.48 61.52 59.18 100.22 65.48 80.0 32.46 4.03 SE 3.80 SE 4.25 SE No 0.000 No Precipitation 06/22/2022 02:12 AM 06/22/2022 02:19 AM 0.000 0.000 0.000 0.000 0.000 1.24 Clear
06/24/2022 06:02 AM 65.30 61.34 58.82 100.22 65.30 79.0 32.46 3.80 SE 3.80 SE 4.25 SE No 0.000 No Precipitation 06/22/2022 02:12 AM 06/22/2022 02:19 AM 0.000 0.000 0.000 0.000 0.000 1.24 Clear
06/24/2022 06:03 AM 65.12 61.16 58.64 100.22 65.12 79.0 32.46 3.80 SE 4.03 SE 4.70 SE No 0.000 No Precipitation 06/22/2022 02:12 AM 06/22/2022 02:19 AM 0.000 0.000 0.000 0.000 0.000 1.24 Clear
06/24/2022 06:04 AM 65.30 61.16 58.64 100.22 65.12 79.0 32.46 4.03 SE 4.03 SE 4.70 SE No 0.000 No Precipitation 06/22/2022 02:12 AM 06/22/2022 02:19 AM 0.000 0.000 0.000 0.000 0.000 1.24 Clear
06/24/2022 06:05 AM 65.30 61.16 58.82 100.22 65.12 79.0 32.46 4.03 SE 3.80 SE 4.70 SE No 0.000 No Precipitation 06/22/2022 02:12 AM 06/22/2022 02:19 AM 0.000 0.000 0.000 0.000 0.000 1.24 Clear
06/24/2022 06:06 AM 65.30 61.16 58.82 100.22 65.12 80.0 32.44 3.80 SE 3.36 SE 4.70 SE No 0.000 No Precipitation 06/22/2022 02:12 AM 06/22/2022 02:19 AM 0.000 0.000 0.000 0.000 0.000 1.24 Clear
06/24/2022 06:07 AM 65.30 61.34 59.00 100.22 65.12 80.0 32.46 3.58 SE 3.36 SE 4.70 SE No 0.000 No Precipitation 06/22/2022 02:12 AM 06/22/2022 02:19 AM 0.000 0.000 0.000 0.000 0.000 1.24 Clear
06/24/2022 06:08 AM 65.48 61.52 59.00 100.22 65.12 80.0 32.46 3.58 SE 3.80 SE 4.70 SE No 0.000 No Precipitation 06/22/2022 02:12 AM 06/22/2022 02:19 AM 0.000 0.000 0.000 0.000 0.000 1.24 Clear
06/24/2022 06:09 AM 65.48 61.52 59.00 100.22 65.12 79.0 32.46 3.80 SE 4.03 SE 4.70 SE No 0.000 No Precipitation 06/22/2022 02:12 AM 06/22/2022 02:19 AM 0.000 0.000 0.000 0.000 0.000 1.24 Clear
06/24/2022 06:10 AM 65.66 61.52 59.00 100.22 65.12 79.0 32.46 4.03 SE 4.25 SE 4.70 SE No 0.000 No Precipitation 06/22/2022 02:12 AM 06/22/2022 02:19 AM 0.000 0.000 0.000 0.000 0.000 1.24 Clear
06/24/2022 06:11 AM 65.66 61.52 59.00 100.22 65.12 78.0 32.46 4.25 SE 4.47 SE 4.70 SE No 0.000 No Precipitation 06/22/2022 02:12 AM 06/22/2022 02:19 AM 0.000 0.000 0.000 0.000 0.000 1.24 Clear
06/24/2022 06:12 AM 65.84 61.52 59.00 100.22 65.12 78.0 32.46 4.47 SE 4.70 SE 4.92 S No 0.000 No Precipitation 06/22/2022 02:12 AM 06/22/2022 02:19 AM 0.000 0.000 0.000 0.000 0.000 1.24 Clear
06/24/2022 06:13 AM 65.84 61.70 59.18 100.22 65.12 79.0 32.46 4.70 SE 4.70 SE 4.92 SE No 0.000 No Precipitation 06/22/2022 02:12 AM 06/22/2022 02:19 AM 0.000 0.000 0.000 0.000 0.000 1.24 Clear
06/24/2022 06:14 AM 65.84 61.70 59.18 100.22 65.12 79.0 32.46 4.70 SE 4.47 SE 4.92 SE No 0.000 No Precipitation 06/22/2022 02:12 AM 06/22/2022 02:19 AM 0.000 0.000 0.000 0.000 0.000 1.24 Clear
06/24/2022 06:15 AM 65.84 61.70 59.00 100.22 65.12 78.0 32.46 4.47 SE 4.25 SE 4.92 SE No 0.000 No Precipitation 06/22/2022 02:12 AM 06/22/2022 02:19 AM 0.000 0.000 0.000 0.000 0.000 1.24 Clear
06/24/2022 06:16 AM 66.02 61.70 59.18 100.22 65.12 78.0 32.46 4.25 SE 3.80 SE 4.92 SE No 0.000 No Precipitation 06/22/2022 02:12 AM 06/22/2022 02:19 AM 0.000 0.000 0.000 0.000 0.000 1.24 Clear
06/24/2022 06:17 AM 66.20 61.70 59.00 100.22 65.12 78.0 32.46 4.03 SE 4.25 E 4.92 SE No 0.000 No Precipitation 06/22/2022 02:12 AM 06/22/2022 02:19 AM 0.000 0.000 0.000 0.000 0.000 1.24 Clear
06/24/2022 06:18 AM 66.20 61.88 59.36 100.22 65.12 78.0 32.46 4.25 SE 4.92 SE 5.37 SE No 0.000 No Precipitation 06/22/2022 02:12 AM 06/22/2022 02:19 AM 0.000 0.000 0.000 0.000 0.000 1.24 Clear
06/24/2022 06:19 AM 66.56 61.88 59.36 100.22 65.12 77.0 32.46 4.70 SE 4.47 SE 5.37 E No 0.000 No Precipitation 06/22/2022 02:12 AM 06/22/2022 02:19 AM 0.000 0.000 0.000 0.000 0.000 1.24 Clear
06/24/2022 06:20 AM 66.74 62.06 59.18 100.22 65.12 76.0 32.46 4.92 E 5.14 E 5.59 E No 0.000 No Precipitation 06/22/2022 02:12 AM 06/22/2022 02:19 AM 0.000 0.000 0.000 0.000 0.000 1.24 Clear
06/24/2022 06:21 AM 66.92 62.06 59.18 100.22 65.12 76.0 32.46 5.14 E 5.37 E 5.82 E No 0.000 No Precipitation 06/22/2022 02:12 AM 06/22/2022 02:19 AM 0.000 0.000 0.000 0.000 0.000 1.24 Clear
06/24/2022 06:22 AM 67.10 61.88 58.64 100.22 65.12 74.0 32.46 5.37 E 5.37 SE 6.26 SE No 0.000 No Precipitation 06/22/2022 02:12 AM 06/22/2022 02:19 AM 0.000 0.000 0.000 0.000 0.000 1.24 Clear
06/24/2022 06:23 AM 67.46 61.70 58.10 100.22 65.12 72.0 32.46 5.14 SE 4.92 E 6.26 SE No 0.000 No Precipitation 06/22/2022 02:12 AM 06/22/2022 02:19 AM 0.000 0.000 0.000 0.000 0.000 1.24 Clear
06/24/2022 06:24 AM 67.82 61.52 57.74 100.22 65.12 70.0 32.44 4.92 SE 4.70 SE 6.26 SE No 0.000 No Precipitation 06/22/2022 02:12 AM 06/22/2022 02:19 AM 0.000 0.000 0.000 0.000 0.000 1.24 Clear
06/24/2022 06:25 AM 68.18 61.52 57.56 100.22 65.12 69.0 32.46 4.47 SE 3.80 SE 6.26 SE No 0.000 No Precipitation 06/22/2022 02:12 AM 06/22/2022 02:19 AM 0.000 0.000 0.000 0.000 0.000 1.24 Clear
06/24/2022 06:26 AM 68.36 61.88 57.92 100.22 65.12 69.0 32.46 4.03 SE 4.47 SE 6.26 SE No 0.000 No Precipitation 06/22/2022 02:12 AM 06/22/2022 02:19 AM 0.000 0.000 0.000 0.000 0.000 1.24 Clear
06/24/2022 06:27 AM 68.36 62.06 58.46 100.22 65.12 70.0 32.46 4.03 SE 4.70 SE 6.26 SE No 0.000 No Precipitation 06/22/2022 02:12 AM 06/22/2022 02:19 AM 0.000 0.000 0.000 0.000 0.000 1.24 Clear
06/24/2022 06:28 AM 68.18 62.06 58.46 100.22 65.12 71.0 32.46 4.25 SE 4.03 SE 6.26 SE No 0.000 No Precipitation 06/22/2022 02:12 AM 06/22/2022 02:19 AM 0.000 0.000 0.000 0.000 0.000 1.24 Clear
06/24/2022 06:29 AM 68.00 61.88 58.28 100.22 65.12 71.0 32.46 4.92 SE 5.37 SE 6.26 SE No 0.000 No Precipitation 06/22/2022 02:12 AM 06/22/2022 02:19 AM 0.000 0.000 0.000 0.000 0.000 1.24 Clear
06/24/2022 06:30 AM 68.00 61.88 58.10 100.22 65.12 70.0 32.46 5.14 SE 4.70 SE 6.26 SE No 0.000 No Precipitation 06/22/2022 02:12 AM 06/22/2022 02:19 AM 0.000 0.000 0.000 0.000 0.000 1.24 Clear
06/24/2022 06:31 AM 68.00 61.88 58.10 100.22 65.12 70.0 32.46 5.37 SE 4.92 SE 6.04 SE No 0.000 No Precipitation 06/22/2022 02:12 AM 06/22/2022 02:19 AM 0.000 0.000 0.000 0.000 0.000 1.24 Clear
06/24/2022 06:32 AM 68.00 61.88 58.28 100.22 65.12 70.0 32.46 5.14 SE 4.70 SE 6.04 SE No 0.000 No Precipitation 06/22/2022 02:12 AM 06/22/2022 02:19 AM 0.000 0.000 0.000 0.000 0.000 1.24 Clear
06/24/2022 06:33 AM 68.18 62.06 58.28 100.22 65.12 71.0 32.46 4.70 SE 4.92 SE 6.04 SE No 0.000 No Precipitation 06/22/2022 02:12 AM 06/22/2022 02:19 AM 0.000 0.000 0.000 0.000 0.000 1.24 Clear
06/24/2022 06:34 AM 68.18 62.06 58.46 100.22 65.12 71.0 32.46 4.70 SE 4.70 SE 6.04 SE No 0.000 No Precipitation 06/22/2022 02:12 AM 06/22/2022 02:19 AM 0.000 0.000 0.000 0.000 0.000 1.24 Clear
06/24/2022 06:35 AM 68.18 62.06 58.46 100.22 65.12 71.0 32.46 4.92 SE 5.14 SE 6.04 SE No 0.000 No Precipitation 06/22/2022 02:12 AM 06/22/2022 02:19 AM 0.000 0.000 0.000 0.000 0.000 1.24 Clear
06/24/2022 06:36 AM 68.36 62.24 58.46 100.22 65.12 71.0 32.46 5.14 SE 5.37 SE 6.04 SE No 0.000 No Precipitation 06/22/2022 02:12 AM 06/22/2022 02:19 AM 0.000 0.000 0.000 0.000 0.000 1.24 Clear
06/24/2022 06:37 AM 68.36 62.24 58.46 100.22 65.12 70.0 32.46 4.92 SE 4.03 SE 6.04 SE No 0.000 No Precipitation 06/22/2022 02:12 AM 06/22/2022 02:19 AM 0.000 0.000 0.000 0.000 0.000 1.24 Clear
06/24/2022 06:38 AM 68.54 62.24 58.46 100.22 65.12 70.0 32.46 4.47 SE 4.70 SE 6.04 SE No 0.000 No Precipitation 06/22/2022 02:12 AM 06/22/2022 02:19 AM 0.000 0.000 0.000 0.000 0.000 1.24 Clear
06/24/2022 06:39 AM 68.72 62.42 58.64 100.22 65.12 70.0 32.46 4.47 SE 4.70 SE 6.04 SE No 0.000 No Precipitation 06/22/2022 02:12 AM 06/22/2022 02:19 AM 0.000 0.000 0.000 0.000 0.000 1.24 Clear
06/24/2022 06:40 AM 68.72 62.24 58.46 100.22 65.12 69.0 32.46 4.25 SE 4.47 SE 5.59 SE No 0.000 No Precipitation 06/22/2022 02:12 AM 06/22/2022 02:19 AM 0.000 0.000 0.000 0.000 0.000 1.24 Clear
06/24/2022 06:41 AM 68.90 62.42 58.46 100.22 65.12 69.0 32.46 4.25 SE 4.25 SE 5.59 SE No 0.000 No Precipitation 06/22/2022 02:12 AM 06/22/2022 02:19 AM 0.000 0.000 0.000 0.000 0.000 1.24 Clear
06/24/2022 06:42 AM 68.90 62.42 58.46 100.22 65.12 69.0 32.44 4.25 SE 4.25 SE 5.59 SE No 0.000 No Precipitation 06/22/2022 02:12 AM 06/22/2022 02:19 AM 0.000 0.000 0.000 0.000 0.000 1.24 Clear
06/24/2022 06:43 AM 69.08 62.42 58.64 100.22 65.12 69.0 32.46 4.03 SE 3.36 SE 5.59 SE No 0.000 No Precipitation 06/22/2022 02:12 AM 06/22/2022 02:19 AM 0.000 0.000 0.000 0.000 0.000 1.24 Clear
06/24/2022 06:44 AM 69.26 62.60 58.82 100.22 65.12 69.0 32.44 3.80 SE 3.80 SE 5.37 SE No 0.000 No Precipitation 06/22/2022 02:12 AM 06/22/2022 02:19 AM 0.000 0.000 0.000 0.000 0.000 1.24 Clear
06/24/2022 06:45 AM 69.26 62.60 58.82 100.22 65.12 69.0 32.46 3.58 SE 3.36 SE 5.37 SE No 0.000 No Precipitation 06/22/2022 02:12 AM 06/22/2022 02:19 AM 0.000 0.000 0.000 0.000 0.000 1.24 Clear
06/24/2022 06:46 AM 69.44 62.78 58.82 100.22 65.12 69.0 32.46 3.58 SE 3.58 SE 5.14 SE No 0.000 No Precipitation 06/22/2022 02:12 AM 06/22/2022 02:19 AM 0.000 0.000 0.000 0.000 0.000 1.24 Clear
06/24/2022 06:47 AM 69.44 62.78 59.00 100.22 65.12 69.0 32.46 3.58 SE 3.36 SE 5.14 SE No 0.000 No Precipitation 06/22/2022 02:12 AM 06/22/2022 02:19 AM 0.000 0.000 0.000 0.000 0.000 1.24 Clear
06/24/2022 06:48 AM 69.44 62.78 59.00 100.22 65.12 69.0 32.46 3.58 SE 2.91 SE 5.14 SE No 0.000 No Precipitation 06/22/2022 02:12 AM 06/22/2022 02:19 AM 0.000 0.000 0.000 0.000 0.000 1.24 Clear
06/24/2022 06:49 AM 69.44 62.78 59.00 100.22 65.12 69.0 32.46 3.80 SE 4.03 SE 4.92 SE No 0.000 No Precipitation 06/22/2022 02:12 AM 06/22/2022 02:19 AM 0.000 0.000 0.000 0.000 0.000 1.24 Clear
06/24/2022 06:50 AM 69.62 62.60 58.64 100.22 65.12 68.0 32.46 3.36 SE 3.13 SE 4.70 SE No 0.000 No Precipitation 06/22/2022 02:12 AM 06/22/2022 02:19 AM 0.000 0.000 0.000 0.000 0.000 1.24 Clear
06/24/2022 06:51 AM 69.62 62.78 58.82 100.22 65.12 68.0 32.46 3.13 SE 3.36 SE 4.70 SE No 0.000 No Precipitation 06/22/2022 02:12 AM 06/22/2022 02:19 AM 0.000 0.000 0.000 0.000 0.000 1.24 Clear
06/24/2022 06:52 AM 69.62 62.78 58.82 100.22 65.12 68.0 32.44 3.36 SE 3.13 SE 4.47 SE No 0.000 No Precipitation 06/22/2022 02:12 AM 06/22/2022 02:19 AM 0.000 0.000 0.000 0.000 0.000 1.24 Clear
06/24/2022 06:53 AM 69.80 62.78 58.82 100.22 65.12 68.0 32.46 3.36 SE 3.58 SE 4.25 SE No 0.000 No Precipitation 06/22/2022 02:12 AM 06/22/2022 02:19 AM 0.000 0.000 0.000 0.000 0.000 1.24 Clear
06/24/2022 06:54 AM 69.80 62.96 58.82 100.22 65.12 68.0 32.46 3.13 SE 4.03 SE 4.25 SE No 0.000 No Precipitation 06/22/2022 02:12 AM 06/22/2022 02:19 AM 0.000 0.000 0.000 0.000 0.000 1.24 Clear
06/24/2022 06:55 AM 69.98 62.96 58.82 100.22 65.12 67.0 32.46 3.36 SE 2.68 SE 4.25 SE No 0.000 No Precipitation 06/22/2022 02:12 AM 06/22/2022 02:19 AM 0.000 0.000 0.000 0.000 0.000 1.24 Clear
06/24/2022 06:56 AM 70.16 63.14 59.18 100.22 65.12 68.0 32.46 3.13 SE 4.03 SE 4.25 SE No 0.000 No Precipitation 06/22/2022 02:12 AM 06/22/2022 02:19 AM 0.000 0.000 0.000 0.000 0.000 1.24 Clear
06/24/2022 06:57 AM 70.34 62.96 58.82 100.22 65.12 67.0 32.46 3.58 SE 3.36 SE 4.47 SE No 0.000 No Precipitation 06/22/2022 02:12 AM 06/22/2022 02:19 AM 0.000 0.000 0.000 0.000 0.000 1.24 Clear
06/24/2022 06:58 AM 70.52 62.96 58.64 100.22 65.12 66.0 32.46 3.58 SE 2.91 SE 4.47 SE No 0.000 No Precipitation 06/22/2022 02:12 AM 06/22/2022 02:19 AM 0.000 0.000 0.000 0.000 0.000 1.24 Clear
06/24/2022 06:59 AM 70.52 63.14 58.82 100.22 65.12 66.0 32.46 3.13 SE 3.36 SE 4.47 SE No 0.000 No Precipitation 06/22/2022 02:12 AM 06/22/2022 02:19 AM 0.000 0.000 0.000 0.000 0.000 1.24 Clear
06/24/2022 07:00 AM 70.52 63.14 58.82 100.22 65.12 66.0 32.44 2.91 SE 2.68 SE 4.47 SE No 0.000 No Precipitation 06/22/2022 02:12 AM 06/22/2022 02:19 AM 0.000 0.000 0.000 0.000 0.000 1.24 Clear
06/24/2022 07:01 AM 70.70 63.14 58.82 100.22 65.12 66.0 32.46 2.91 SE 3.13 SE 4.47 SE No 0.000 No Precipitation 06/22/2022 02:12 AM 06/22/2022 02:19 AM 0.000 0.000 0.000 0.000 0.000 1.24 Clear
06/24/2022 07:02 AM 70.70 63.14 58.82 100.22 65.12 66.0 32.46 2.68 SE 3.13 SE 4.47 SE No 0.000 No Precipitation 06/22/2022 02:12 AM 06/22/2022 02:19 AM 0.000 0.000 0.000 0.000 0.000 1.24 Clear
06/24/2022 07:03 AM 70.70 63.14 58.64 100.22 65.12 65.0 32.46 2.91 SE 3.36 SE 4.47 SE No 0.000 No Precipitation 06/22/2022 02:12 AM 06/22/2022 02:19 AM 0.000 0.000 0.000 0.000 0.000 1.24 Clear
06/24/2022 07:04 AM 70.88 63.14 58.64 100.22 65.12 65.0 32.44 2.91 SE 2.24 S 4.47 SE No 0.000 No Precipitation 06/22/2022 02:12 AM 06/22/2022 02:19 AM 0.000 0.000 0.000 0.000 0.000 1.24 Clear
06/24/2022 07:05 AM 70.88 63.32 58.82 100.22 65.12 65.0 32.46 2.68 SE 3.13 SE 4.47 SE No 0.000 No Precipitation 06/22/2022 02:12 AM 06/22/2022 02:19 AM 0.000 0.000 0.000 0.000 0.000 1.24 Clear
06/24/2022 07:06 AM 71.06 63.50 59.00 100.22 65.12 66.0 32.46 2.46 SE 2.46 SE 4.25 SE No 0.000 No Precipitation 06/22/2022 02:12 AM 06/22/2022 02:19 AM 0.000 0.000 0.000 0.000 0.000 1.24 Clear
06/24/2022 07:07 AM 71.24 63.50 59.18 100.22 65.12 65.0 32.46 2.68 SE 2.46 SE 3.80 SE No 0.000 No Precipitation 06/22/2022 02:12 AM 06/22/2022 02:19 AM 0.000 0.000 0.000 0.000 0.000 1.24 Clear
06/24/2022 07:08 AM 71.42 63.50 59.00 100.22 65.12 65.0 32.46 2.68 SE 2.91 SE 3.80 SE No 0.000 No Precipitation 06/22/2022 02:12 AM 06/22/2022 02:19 AM 0.000 0.000 0.000 0.000 0.000 1.24 Clear
06/24/2022 07:09 AM 71.42 63.50 58.82 100.22 65.12 64.0 32.46 2.68 SE 3.13 S 3.80 SE No 0.000 No Precipitation 06/22/2022 02:12 AM 06/22/2022 02:19 AM 0.000 0.000 0.000 0.000 0.000 1.24 Clear
06/24/2022 07:10 AM 71.60 63.68 59.36 100.22 65.12 65.0 32.46 3.13 S 3.80 SE 4.03 S No 0.000 No Precipitation 06/22/2022 02:12 AM 06/22/2022 02:19 AM 0.000 0.000 0.000 0.000 0.000 1.24 Clear
06/24/2022 07:11 AM 71.60 63.86 59.36 100.22 65.12 65.0 32.46 3.58 SE 3.58 S 4.25 SE No 0.000 No Precipitation 06/22/2022 02:12 AM 06/22/2022 02:19 AM 0.000 0.000 0.000 0.000 0.000 1.24 Clear
06/24/2022 07:12 AM 71.60 63.50 58.82 100.22 65.12 64.0 32.44 3.36 SE 2.68 S 4.25 SE No 0.000 No Precipitation 06/22/2022 02:12 AM 06/22/2022 02:19 AM 0.000 0.000 0.000 0.000 0.000 1.24 Clear
06/24/2022 07:13 AM 71.78 63.68 58.82 100.22 65.12 64.0 32.46 3.36 SE 3.58 S 4.92 SE No 0.000 No Precipitation 06/22/2022 02:12 AM 06/22/2022 02:19 AM 0.000 0.000 0.000 0.000 0.000 1.24 Clear
06/24/2022 07:14 AM 71.96 63.50 58.46 100.22 65.12 62.0 32.44 3.58 SE 3.80 S 4.92 SE No 0.000 No Precipitation 06/22/2022 02:12 AM 06/22/2022 02:19 AM 0.000 0.000 0.000 0.000 0.000 1.24 Clear
06/24/2022 07:15 AM 71.96 63.86 59.00 100.22 65.12 63.0 32.46 3.80 S 3.36 SE 4.92 SE No 0.000 No Precipitation 06/22/2022 02:12 AM 06/22/2022 02:19 AM 0.000 0.000 0.000 0.000 0.000 1.24 Clear
06/24/2022 07:16 AM 72.32 63.86 59.00 100.22 65.12 63.0 32.46 4.25 SE 5.82 SE 6.04 SE No 0.000 No Precipitation 06/22/2022 02:12 AM 06/22/2022 02:19 AM 0.000 0.000 0.000 0.000 0.000 1.24 Clear
06/24/2022 07:17 AM 72.50 63.68 58.82 100.22 65.12 62.0 32.46 4.92 SE 4.92 SE 6.04 SE No 0.000 No Precipitation 06/22/2022 02:12 AM 06/22/2022 02:19 AM 0.000 0.000 0.000 0.000 0.000 1.24 Clear
06/24/2022 07:18 AM 72.32 63.68 58.64 100.22 65.12 62.0 32.46 4.47 SE 3.36 SE 6.04 SE No 0.000 No Precipitation 06/22/2022 02:12 AM 06/22/2022 02:19 AM 0.000 0.000 0.000 0.000 0.000 1.24 Clear
06/24/2022 07:19 AM 72.32 63.50 58.28 100.22 65.12 61.0 32.46 4.25 SE 4.70 SE 6.04 SE No 0.000 No Precipitation 06/22/2022 02:12 AM 06/22/2022 02:19 AM 0.000 0.000 0.000 0.000 0.000 1.24 Clear
06/24/2022 07:20 AM 72.50 63.50 58.28 100.22 65.12 61.0 32.46 4.70 SE 4.70 SE 6.04 SE No 0.000 No Precipitation 06/22/2022 02:12 AM 06/22/2022 02:19 AM 0.000 0.000 0.000 0.000 0.000 1.24 Clear
06/24/2022 07:21 AM 72.50 63.68 58.46 100.22 65.12 61.0 32.46 4.03 SE 4.25 S 6.04 SE No 0.000 No Precipitation 06/22/2022 02:12 AM 06/22/2022 02:19 AM 0.000 0.000 0.000 0.000 0.000 1.24 Clear
06/24/2022 07:22 AM 72.68 63.86 58.82 100.22 65.12 61.0 32.46 3.80 SE 3.58 SE 6.04 SE No 0.000 No Precipitation 06/22/2022 02:12 AM 06/22/2022 02:19 AM 0.000 0.000 0.000 0.000 0.000 1.24 Clear
06/24/2022 07:23 AM 72.86 63.68 58.46 100.22 65.12 61.0 32.46 4.03 SE 3.58 SE 6.04 SE No 0.000 No Precipitation 06/22/2022 02:12 AM 06/22/2022 02:19 AM 0.000 0.000 0.000 0.000 0.000 1.24 Clear
06/24/2022 07:24 AM 72.68 63.86 58.64 100.22 65.12 61.0 32.46 4.47 SE 5.14 SE 6.04 SE No 0.000 No Precipitation 06/22/2022 02:12 AM 06/22/2022 02:19 AM 0.000 0.000 0.000 0.000 0.000 1.24 Clear
06/24/2022 07:25 AM 72.86 63.86 58.64 100.22 65.12 61.0 32.46 4.92 SE 4.92 S 6.04 SE No 0.000 No Precipitation 06/22/2022 02:12 AM 06/22/2022 02:19 AM 0.000 0.000 0.000 0.000 0.000 1.24 Clear
06/24/2022 07:26 AM 72.86 63.68 58.46 100.22 65.12 60.0 32.46 4.47 SE 4.25 SE 6.04 SE No 0.000 No Precipitation 06/22/2022 02:12 AM 06/22/2022 02:19 AM 0.000 0.000 0.000 0.000 0.000 1.24 Clear
06/24/2022 07:27 AM 72.86 64.04 59.00 100.22 65.12 61.0 32.46 4.03 SE 3.80 SE 6.04 SE No 0.000 No Precipitation 06/22/2022 02:12 AM 06/22/2022 02:19 AM 0.000 0.000 0.000 0.000 0.000 1.24 Clear
06/24/2022 07:28 AM 73.04 64.04 58.82 100.22 65.12 61.0 32.46 4.03 SE 5.37 SE 6.04 SE No 0.000 No Precipitation 06/22/2022 02:12 AM 06/22/2022 02:19 AM 0.000 0.000 0.000 0.000 0.000 1.24 Clear
06/24/2022 07:29 AM 73.22 63.86 58.46 100.22 65.12 59.0 32.46 4.47 SE 4.70 SE 6.04 SE No 0.000 No Precipitation 06/22/2022 02:12 AM 06/22/2022 02:19 AM 0.000 0.000 0.000 0.000 0.000 1.24 Clear
06/24/2022 07:30 AM 73.22 63.86 58.46 100.22 65.12 60.0 32.46 4.92 SE 5.37 SE 6.04 SE No 0.000 No Precipitation 06/22/2022 02:12 AM 06/22/2022 02:19 AM 0.000 0.000 0.000 0.000 0.000 1.24 Clear
06/24/2022 07:31 AM 73.22 63.68 58.10 100.22 65.12 59.0 32.46 5.14 SE 4.25 SE 6.04 SE No 0.000 No Precipitation 06/22/2022 02:12 AM 06/22/2022 02:19 AM 0.000 0.000 0.000 0.000 0.000 1.24 Clear
06/24/2022 07:32 AM 73.04 63.68 58.10 100.22 65.12 59.0 32.46 4.92 SE 5.59 SE 6.04 SE No 0.000 No Precipitation 06/22/2022 02:12 AM 06/22/2022 02:19 AM 0.000 0.000 0.000 0.000 0.000 1.24 Clear
06/24/2022 07:33 AM 73.40 63.68 58.10 100.22 65.12 59.0 32.46 4.92 SE 5.59 SE 6.04 SE No 0.000 No Precipitation 06/22/2022 02:12 AM 06/22/2022 02:19 AM 0.000 0.000 0.000 0.000 0.000 1.24 Clear
06/24/2022 07:34 AM 73.40 63.68 57.92 100.22 65.12 58.0 32.46 5.37 SE 6.04 SE 6.04 SE No 0.000 No Precipitation 06/22/2022 02:12 AM 06/22/2022 02:19 AM 0.000 0.000 0.000 0.000 0.000 1.24 Clear
06/24/2022 07:35 AM 73.40 63.50 57.74 100.22 65.12 58.0 32.46 5.59 SE 5.59 SE 6.04 SE No 0.000 No Precipitation 06/22/2022 02:12 AM 06/22/2022 02:19 AM 0.000 0.000 0.000 0.000 0.000 1.24 Clear
06/24/2022 07:36 AM 73.40 63.50 57.74 100.22 65.12 58.0 32.46 5.14 SE 4.70 SE 6.04 SE No 0.000 No Precipitation 06/22/2022 02:12 AM 06/22/2022 02:19 AM 0.000 0.000 0.000 0.000 0.000 1.24 Clear
06/24/2022 07:37 AM 73.40 63.50 57.56 100.22 65.12 57.0 32.46 4.70 SE 4.47 SE 6.04 SE No 0.000 No Precipitation 06/22/2022 02:12 AM 06/22/2022 02:19 AM 0.000 0.000 0.000 0.000 0.000 1.24 Clear
06/24/2022 07:38 AM 73.58 63.68 57.92 100.22 65.12 58.0 32.46 4.92 SE 5.14 SE 6.04 SE No 0.000 No Precipitation 06/22/2022 02:12 AM 06/22/2022 02:19 AM 0.000 0.000 0.000 0.000 0.000 1.24 Clear
06/24/2022 07:39 AM 73.76 63.68 57.74 100.22 65.12 57.0 32.46 4.92 SE 5.59 SE 6.04 SE No 0.000 No Precipitation 06/22/2022 02:12 AM 06/22/2022 02:19 AM 0.000 0.000 0.000 0.000 0.000 1.24 Clear
06/24/2022 07:40 AM 73.76 63.68 57.92 100.22 65.12 57.0 32.46 4.92 SE 4.25 SE 6.04 SE No 0.000 No Precipitation 06/22/2022 02:12 AM 06/22/2022 02:19 AM 0.000 0.000 0.000 0.000 0.000 1.24 Clear
06/24/2022 07:41 AM 73.76 63.68 57.74 100.22 65.12 57.0 32.46 4.70 SE 4.70 SE 6.04 SE No 0.000 No Precipitation 06/22/2022 02:12 AM 06/22/2022 02:19 AM 0.000 0.000 0.000 0.000 0.000 1.24 Clear
06/24/2022 07:42 AM 73.94 63.86 57.92 100.22 65.12 57.0 32.46 4.70 SE 4.92 SE 6.04 SE No 0.000 No Precipitation 06/22/2022 02:12 AM 06/22/2022 02:19 AM 0.000 0.000 0.000 0.000 0.000 1.24 Clear
06/24/2022 07:43 AM 73.94 63.32 57.20 100.22 65.12 56.0 32.46 4.92 SE 4.92 SE 6.04 SE No 0.000 No Precipitation 06/22/2022 02:12 AM 06/22/2022 02:19 AM 0.000 0.000 0.000 0.000 0.000 1.24 Clear
06/24/2022 07:44 AM 73.76 63.68 57.74 100.22 65.12 57.0 32.46 4.70 SE 3.36 SE 6.04 SE No 0.000 No Precipitation 06/22/2022 02:12 AM 06/22/2022 02:19 AM 0.000 0.000 0.000 0.000 0.000 1.24 Clear
06/24/2022 07:45 AM 73.94 63.86 57.92 100.22 65.12 57.0 32.46 4.25 SE 4.47 SE 6.04 SE No 0.000 No Precipitation 06/22/2022 02:12 AM 06/22/2022 02:19 AM 0.000 0.000 0.000 0.000 0.000 1.24 Clear
06/24/2022 07:46 AM 74.30 63.86 57.92 100.22 65.12 56.0 32.46 4.47 SE 5.14 SE 6.04 S No 0.000 No Precipitation 06/22/2022 02:12 AM 06/22/2022 02:19 AM 0.000 0.000 0.000 0.000 0.000 1.24 Clear
06/24/2022 07:47 AM 74.48 64.22 58.28 100.22 65.12 57.0 32.46 4.92 SE 4.92 SE 6.04 S No 0.000 No Precipitation 06/22/2022 02:12 AM 06/22/2022 02:19 AM 0.000 0.000 0.000 0.000 0.000 1.24 Clear
06/24/2022 07:48 AM 74.30 64.22 58.28 100.22 65.12 57.0 32.46 4.92 SE 4.47 SE 6.04 S No 0.000 No Precipitation 06/22/2022 02:12 AM 06/22/2022 02:19 AM 0.000 0.000 0.000 0.000 0.000 1.24 Clear
06/24/2022 07:49 AM 74.48 64.22 58.46 100.22 65.12 57.0 32.46 4.92 SE 4.03 SE 6.04 S No 0.000 No Precipitation 06/22/2022 02:12 AM 06/22/2022 02:19 AM 0.000 0.000 0.000 0.000 0.000 1.24 Clear
06/24/2022 07:50 AM 74.48 64.22 58.10 100.22 65.12 56.0 32.46 4.92 S 4.03 S 6.04 SE No 0.000 No Precipitation 06/22/2022 02:12 AM 06/22/2022 02:19 AM 0.000 0.000 0.000 0.000 0.000 1.24 Clear
06/24/2022 07:51 AM 74.48 64.22 58.10 100.22 65.12 56.0 32.46 5.14 SE 4.70 SE 6.04 SE No 0.000 No Precipitation 06/22/2022 02:12 AM 06/22/2022 02:19 AM 0.000 0.000 0.000 0.000 0.000 1.24 Clear
06/24/2022 07:52 AM 74.48 64.04 58.10 100.22 65.12 56.0 32.46 4.92 SE 4.25 SE 6.04 SE No 0.000 No Precipitation 06/22/2022 02:12 AM 06/22/2022 02:19 AM 0.000 0.000 0.000 0.000 0.000 1.24 Clear
06/24/2022 07:53 AM 74.48 64.40 58.64 100.22 65.12 58.0 32.46 4.47 SE 4.70 SE 6.04 SE No 0.000 No Precipitation 06/22/2022 02:12 AM 06/22/2022 02:19 AM 0.000 0.000 0.000 0.000 0.000 1.24 Clear
06/24/2022 07:54 AM 74.66 64.40 58.46 100.22 65.12 57.0 32.46 4.25 SE 4.03 S 6.04 SE No 0.000 No Precipitation 06/22/2022 02:12 AM 06/22/2022 02:19 AM 0.000 0.000 0.000 0.000 0.000 1.24 Clear
06/24/2022 07:55 AM 74.66 64.76 59.00 100.22 65.12 58.0 32.46 4.03 SE 3.13 SE 6.04 SE No 0.000 No Precipitation 06/22/2022 02:12 AM 06/22/2022 02:19 AM 0.000 0.000 0.000 0.000 0.000 1.24 Clear
06/24/2022 07:56 AM 75.02 64.40 58.46 100.22 65.12 56.0 32.46 3.80 SE 3.58 SE 6.04 SE No 0.000 No Precipitation 06/22/2022 02:12 AM 06/22/2022 02:19 AM 0.000 0.000 0.000 0.000 0.000 1.24 Clear
06/24/2022 07:57 AM 75.02 64.76 59.00 100.22 65.12 57.0 32.46 4.03 SE 4.03 SE 6.04 SE No 0.000 No Precipitation 06/22/2022 02:12 AM 06/22/2022 02:19 AM 0.000 0.000 0.000 0.000 0.000 1.24 Clear
06/24/2022 07:58 AM 75.02 64.58 58.46 100.22 65.12 56.0 32.46 4.03 SE 4.70 SE 6.04 SE No 0.000 No Precipitation 06/22/2022 02:12 AM 06/22/2022 02:19 AM 0.000 0.000 0.000 0.000 0.000 1.24 Clear
06/24/2022 07:59 AM 75.02 64.40 58.28 100.22 65.12 56.0 32.46 4.25 SE 4.47 SE 5.59 SE No 0.000 No Precipitation 06/22/2022 02:12 AM 06/22/2022 02:19 AM 0.000 0.000 0.000 0.000 0.000 1.24 Clear
06/24/2022 08:00 AM 75.20 64.58 58.46 100.22 65.12 56.0 32.46 4.03 SE 3.36 S 5.59 SE No 0.000 No Precipitation 06/22/2022 02:12 AM 06/22/2022 02:19 AM 0.000 0.000 0.000 0.000 0.000 1.24 Clear
06/24/2022 08:01 AM 75.20 64.76 58.46 100.22 65.12 56.0 32.46 3.80 SE 4.25 S 5.37 SE No 0.000 No Precipitation 06/22/2022 02:12 AM 06/22/2022 02:19 AM 0.000 0.000 0.000 0.000 0.000 1.24 Clear
06/24/2022 08:02 AM 75.56 64.94 58.82 100.22 65.12 55.0 32.46 4.25 SE 4.92 SE 5.82 SE No 0.000 No Precipitation 06/22/2022 02:12 AM 06/22/2022 02:19 AM 0.000 0.000 0.000 0.000 0.000 1.24 Clear
06/24/2022 08:03 AM 75.92 64.94 58.82 100.22 65.12 55.0 32.46 4.47 SE 4.25 SE 5.82 SE No 0.000 No Precipitation 06/22/2022 02:12 AM 06/22/2022 02:19 AM 0.000 0.000 0.000 0.000 0.000 1.24 Clear
06/24/2022 08:04 AM 75.74 64.94 58.64 100.22 65.12 55.0 32.46 4.03 SE 4.03 SE 5.82 SE No 0.000 No Precipitation 06/22/2022 02:12 AM 06/22/2022 02:19 AM 0.000 0.000 0.000 0.000 0.000 1.24 Clear
06/24/2022 08:05 AM 75.74 64.94 58.64 100.22 65.12 55.0 32.46 4.25 SE 4.70 SE 5.82 SE No 0.000 No Precipitation 06/22/2022 02:12 AM 06/22/2022 02:19 AM 0.000 0.000 0.000 0.000 0.000 1.24 Clear
06/24/2022 08:06 AM 75.74 64.76 58.46 100.22 65.12 55.0 32.46 4.47 SE 4.92 SE 5.82 SE No 0.000 No Precipitation 06/22/2022 02:12 AM 06/22/2022 02:19 AM 0.000 0.000 0.000 0.000 0.000 1.24 Clear
06/24/2022 08:07 AM 75.92 64.58 58.28 100.22 65.12 54.0 32.46 4.47 SE 4.25 SE 5.82 SE No 0.000 No Precipitation 06/22/2022 02:12 AM 06/22/2022 02:19 AM 0.000 0.000 0.000 0.000 0.000 1.24 Clear
06/24/2022 08:08 AM 76.10 64.58 58.10 100.22 65.12 53.0 32.46 4.03 SE 4.47 SE 5.82 SE No 0.000 No Precipitation 06/22/2022 02:12 AM 06/22/2022 02:19 AM 0.000 0.000 0.000 0.000 0.000 1.24 Clear
06/24/2022 08:09 AM 76.28 64.58 57.92 100.22 65.12 53.0 32.46 4.25 SE 4.70 SE 5.82 SE No 0.000 No Precipitation 06/22/2022 02:12 AM 06/22/2022 02:19 AM 0.000 0.000 0.000 0.000 0.000 1.24 Clear
06/24/2022 08:10 AM 76.28 64.76 58.28 100.22 65.12 53.0 32.46 4.70 SE 4.03 SE 5.82 SE No 0.000 No Precipitation 06/22/2022 02:12 AM 06/22/2022 02:19 AM 0.000 0.000 0.000 0.000 0.000 1.24 Clear
06/24/2022 08:11 AM 76.28 64.76 58.28 100.22 65.12 53.0 32.46 4.92 SE 4.70 SE 6.04 SE No 0.000 No Precipitation 06/22/2022 02:12 AM 06/22/2022 02:19 AM 0.000 0.000 0.000 0.000 0.000 1.24 Clear
06/24/2022 08:12 AM 76.28 64.58 57.92 100.22 65.12 53.0 32.46 4.92 SE 3.58 SE 6.04 SE No 0.000 No Precipitation 06/22/2022 02:12 AM 06/22/2022 02:19 AM 0.000 0.000 0.000 0.000 0.000 1.24 Clear
06/24/2022 08:13 AM 76.46 64.22 57.20 100.22 65.12 51.0 32.46 4.25 SE 4.25 S 6.04 SE No 0.000 No Precipitation 06/22/2022 02:12 AM 06/22/2022 02:19 AM 0.000 0.000 0.000 0.000 0.000 1.24 Clear
06/24/2022 08:14 AM 76.64 64.58 57.56 100.22 65.12 52.0 32.46 4.25 S 4.70 SE 6.04 SE No 0.000 No Precipitation 06/22/2022 02:12 AM 06/22/2022 02:19 AM 0.000 0.000 0.000 0.000 0.000 1.24 Clear
06/24/2022 08:15 AM 76.46 64.76 57.92 100.22 65.12 52.0 32.46 4.25 SE 3.80 SE 6.04 SE No 0.000 No Precipitation 06/22/2022 02:12 AM 06/22/2022 02:19 AM 0.000 0.000 0.000 0.000 0.000 1.24 Clear
06/24/2022 08:16 AM 76.82 64.76 57.92 100.22 65.12 52.0 32.46 4.03 SE 3.36 SE 6.04 SE No 0.000 No Precipitation 06/22/2022 02:12 AM 06/22/2022 02:19 AM 0.000 0.000 0.000 0.000 0.000 1.24 Clear
06/24/2022 08:17 AM 76.82 64.58 57.74 100.22 65.12 51.0 32.46 3.80 SE 2.91 S 6.04 SE No 0.000 No Precipitation 06/22/2022 02:12 AM 06/22/2022 02:19 AM 0.000 0.000 0.000 0.000 0.000 1.24 Clear
06/24/2022 08:18 AM 76.82 64.94 58.10 100.22 65.12 52.0 32.46 2.91 SE 1.57 SE 6.04 SE No 0.000 No Precipitation 06/22/2022 02:12 AM 06/22/2022 02:19 AM 0.000 0.000 0.000 0.000 0.000 1.24 Clear
06/24/2022 08:19 AM 77.00 64.94 58.10 100.22 65.12 52.0 32.46 2.91 SE 4.47 SE 6.04 SE No 0.000 No Precipitation 06/22/2022 02:12 AM 06/22/2022 02:19 AM 0.000 0.000 0.000 0.000 0.000 1.24 Clear
06/24/2022 08:20 AM 77.36 65.30 58.46 100.22 65.12 52.0 32.46 4.25 SE 4.03 SE 6.04 SE No 0.000 No Precipitation 06/22/2022 02:12 AM 06/22/2022 02:19 AM 0.000 0.000 0.000 0.000 0.000 1.24 Clear
06/24/2022 08:21 AM 77.36 64.22 56.48 100.22 65.12 48.0 32.46 4.92 SE 4.25 SE 6.04 SE No 0.000 No Precipitation 06/22/2022 02:12 AM 06/22/2022 02:19 AM 0.000 0.000 0.000 0.000 0.000 1.24 Clear
06/24/2022 08:22 AM 77.18 64.04 56.12 100.22 65.12 48.0 32.46 4.70 SE 4.47 S 6.04 SE No 0.000 No Precipitation 06/22/2022 02:12 AM 06/22/2022 02:19 AM 0.000 0.000 0.000 0.000 0.000 1.24 Clear
06/24/2022 08:23 AM 77.18 64.22 56.66 100.22 65.12 49.0 32.46 4.70 S 5.82 SE 6.04 SE No 0.000 No Precipitation 06/22/2022 02:12 AM 06/22/2022 02:19 AM 0.000 0.000 0.000 0.000 0.000 1.24 Clear
06/24/2022 08:24 AM 77.36 63.50 55.04 100.22 65.12 46.0 32.46 5.37 SE 6.26 SE 6.49 SE No 0.000 No Precipitation 06/22/2022 02:12 AM 06/22/2022 02:19 AM 0.000 0.000 0.000 0.000 0.000 1.24 Clear
06/24/2022 08:25 AM 77.54 63.86 55.58 100.22 65.12 47.0 32.46 5.59 SE 5.37 SE 6.49 SE No 0.000 No Precipitation 06/22/2022 02:12 AM 06/22/2022 02:19 AM 0.000 0.000 0.000 0.000 0.000 1.24 Clear
06/24/2022 08:26 AM 77.36 64.04 55.94 100.22 65.12 47.0 32.46 4.92 SE 4.25 SE 6.49 SE No 0.000 No Precipitation 06/22/2022 02:12 AM 06/22/2022 02:19 AM 0.000 0.000 0.000 0.000 0.000 1.24 Clear
06/24/2022 08:27 AM 77.36 64.22 56.66 100.22 65.12 49.0 32.46 4.70 SE 5.59 S 6.49 SE No 0.000 No Precipitation 06/22/2022 02:12 AM 06/22/2022 02:19 AM 0.000 0.000 0.000 0.000 0.000 1.24 Clear
06/24/2022 08:28 AM 77.72 64.22 56.48 100.22 65.12 48.0 32.46 4.70 S 4.70 S 6.49 SE No 0.000 No Precipitation 06/22/2022 02:12 AM 06/22/2022 02:19 AM 0.000 0.000 0.000 0.000 0.000 1.24 Clear
06/24/2022 08:29 AM 77.90 64.58 56.66 100.22 65.12 48.0 32.46 4.47 S 5.37 S 6.49 SE No 0.000 No Precipitation 06/22/2022 02:12 AM 06/22/2022 02:19 AM 0.000 0.000 0.000 0.000 0.000 1.24 Clear
06/24/2022 08:30 AM 77.90 64.58 56.66 100.22 65.12 48.0 32.46 4.70 S 4.70 SE 6.49 SE No 0.000 No Precipitation 06/22/2022 02:12 AM 06/22/2022 02:19 AM 0.000 0.000 0.000 0.000 0.000 1.24 Clear
06/24/2022 08:31 AM 78.08 64.40 56.12 100.22 65.12 46.0 32.46 4.70 SE 4.92 SE 6.49 SE No 0.000 No Precipitation 06/22/2022 02:12 AM 06/22/2022 02:19 AM 0.000 0.000 0.000 0.000 0.000 1.24 Clear
06/24/2022 08:32 AM 78.08 64.40 56.12 100.22 65.12 47.0 32.46 4.25 SE 3.58 S 6.49 SE No 0.000 No Precipitation 06/22/2022 02:12 AM 06/22/2022 02:19 AM 0.000 0.000 0.000 0.000 0.000 1.24 Clear
06/24/2022 08:33 AM 77.90 64.40 56.48 100.22 65.12 47.0 32.46 3.36 SE 3.80 S 6.26 SE No 0.000 No Precipitation 06/22/2022 02:12 AM 06/22/2022 02:19 AM 0.000 0.000 0.000 0.000 0.000 1.24 Clear
06/24/2022 08:34 AM 77.90 64.76 57.38 100.22 65.12 49.0 32.46 3.58 S 3.13 SE 6.26 SE No 0.000 No Precipitation 06/22/2022 02:12 AM 06/22/2022 02:19 AM 0.000 0.000 0.000 0.000 0.000 1.24 Clear
06/24/2022 08:35 AM 78.26 64.40 56.30 100.22 65.12 47.0 32.46 3.58 SE 2.91 S 5.59 S No 0.000 No Precipitation 06/22/2022 02:12 AM 06/22/2022 02:19 AM 0.000 0.000 0.000 0.000 0.000 1.24 Clear
06/24/2022 08:36 AM 78.26 64.94 57.20 100.22 65.12 48.0 32.46 3.58 S 2.68 S 5.59 S No 0.000 No Precipitation 06/22/2022 02:12 AM 06/22/2022 02:19 AM 0.000 0.000 0.000 0.000 0.000 1.24 Clear
06/24/2022 08:37 AM 78.62 64.76 56.84 100.22 65.12 47.0 32.46 3.80 S 4.70 SE 5.59 SE No 0.000 No Precipitation 06/22/2022 02:12 AM 06/22/2022 02:19 AM 0.000 0.000 0.000 0.000 0.000 1.24 Clear
06/24/2022 08:38 AM 78.98 65.30 57.38 100.22 65.12 47.0 32.46 4.03 S 5.14 S 5.59 S No 0.000 No Precipitation 06/22/2022 02:12 AM 06/22/2022 02:19 AM 0.000 0.000 0.000 0.000 0.000 1.24 Clear
06/24/2022 08:39 AM 79.16 65.12 56.84 100.22 65.12 46.0 32.46 4.70 S 4.25 S 5.82 SE No 0.000 No Precipitation 06/22/2022 02:12 AM 06/22/2022 02:19 AM 0.000 0.000 0.000 0.000 0.000 1.24 Clear
06/24/2022 08:40 AM 79.16 65.30 57.56 100.22 65.12 47.0 32.46 5.37 S 6.26 S 7.16 S No 0.000 No Precipitation 06/22/2022 02:12 AM 06/22/2022 02:19 AM 0.000 0.000 0.000 0.000 0.000 1.24 Clear
06/24/2022 08:41 AM 79.52 65.84 58.28 100.22 65.12 48.0 32.46 6.04 S 6.49 S 7.16 S No 0.000 No Precipitation 06/22/2022 02:12 AM 06/22/2022 02:19 AM 0.000 0.000 0.000 0.000 0.000 1.24 Clear
06/24/2022 08:42 AM 79.70 65.84 58.10 100.22 65.12 47.0 32.46 6.26 S 6.04 S 7.61 S No 0.000 No Precipitation 06/22/2022 02:12 AM 06/22/2022 02:19 AM 0.000 0.000 0.000 0.000 0.000 1.24 Clear
06/24/2022 08:43 AM 79.88 65.84 57.92 100.22 65.12 47.0 32.46 6.04 S 6.04 SE 7.61 S No 0.000 No Precipitation 06/22/2022 02:12 AM 06/22/2022 02:19 AM 0.000 0.000 0.000 0.000 0.000 1.24 Clear
06/24/2022 08:44 AM 80.06 66.20 58.46 100.22 65.12 47.0 32.46 5.14 S 4.25 SE 7.61 S No 0.000 No Precipitation 06/22/2022 02:12 AM 06/22/2022 02:19 AM 0.000 0.000 0.000 0.000 0.000 1.24 Clear
06/24/2022 08:45 AM 80.24 66.02 58.10 100.22 65.12 47.0 32.46 4.92 S 5.59 S 7.61 S No 0.000 No Precipitation 06/22/2022 02:12 AM 06/22/2022 02:19 AM 0.000 0.000 0.000 0.000 0.000 1.24 Clear
06/24/2022 08:46 AM 80.24 65.84 57.56 100.22 65.12 46.0 32.46 5.37 S 3.80 S 7.61 S No 0.000 No Precipitation 06/22/2022 02:12 AM 06/22/2022 02:19 AM 0.000 0.000 0.000 0.000 0.000 1.24 Clear
06/24/2022 08:47 AM 80.24 66.20 58.28 100.22 65.12 47.0 32.46 4.92 S 6.04 S 7.61 S No 0.000 No Precipitation 06/22/2022 02:12 AM 06/22/2022 02:19 AM 0.000 0.000 0.000 0.000 0.000 1.24 Clear
06/24/2022 08:48 AM 80.42 66.20 58.46 100.22 65.12 47.0 32.46 5.14 S 4.47 S 7.61 S No 0.000 No Precipitation 06/22/2022 02:12 AM 06/22/2022 02:19 AM 0.000 0.000 0.000 0.000 0.000 1.24 Clear
06/24/2022 08:49 AM 80.78 66.20 58.10 100.22 65.12 46.0 32.46 5.14 S 4.70 SE 7.61 S No 0.000 No Precipitation 06/22/2022 02:12 AM 06/22/2022 02:19 AM 0.000 0.000 0.000 0.000 0.000 1.24 Clear
06/24/2022 08:50 AM 80.78 66.38 58.64 100.22 65.12 47.0 32.46 5.37 S 5.37 SE 7.61 S No 0.000 No Precipitation 06/22/2022 02:12 AM 06/22/2022 02:19 AM 0.000 0.000 0.000 0.000 0.000 1.24 Clear
06/24/2022 08:51 AM 80.42 65.84 57.74 100.22 65.12 45.0 32.46 5.82 SE 4.92 S 7.38 S No 0.000 No Precipitation 06/22/2022 02:12 AM 06/22/2022 02:19 AM 0.000 0.000 0.000 0.000 0.000 1.24 Clear
06/24/2022 08:52 AM 80.42 65.48 57.02 100.22 65.12 44.0 32.46 5.59 S 6.04 S 7.38 S No 0.000 No Precipitation 06/22/2022 02:12 AM 06/22/2022 02:19 AM 0.000 0.000 0.000 0.000 0.000 1.24 Clear
06/24/2022 08:53 AM 80.42 65.84 57.56 100.22 65.12 45.0 32.46 6.04 S 6.93 S 7.38 S No 0.000 No Precipitation 06/22/2022 02:12 AM 06/22/2022 02:19 AM 0.000 0.000 0.000 0.000 0.000 1.24 Clear
06/24/2022 08:54 AM 80.60 66.20 58.10 100.22 65.12 46.0 32.46 6.04 S 5.59 S 7.38 S No 0.000 No Precipitation 06/22/2022 02:12 AM 06/22/2022 02:19 AM 0.000 0.000 0.000 0.000 0.000 1.24 Clear
06/24/2022 08:55 AM 80.60 65.84 57.74 100.22 65.12 45.0 32.46 5.59 S 6.04 S 7.38 S No 0.000 No Precipitation 06/22/2022 02:12 AM 06/22/2022 02:19 AM 0.000 0.000 0.000 0.000 0.000 1.24 Clear
06/24/2022 08:56 AM 80.60 65.48 56.84 100.22 65.12 44.0 32.46 5.82 S 5.59 S 7.38 S No 0.000 No Precipitation 06/22/2022 02:12 AM 06/22/2022 02:19 AM 0.000 0.000 0.000 0.000 0.000 1.24 Clear
06/24/2022 08:57 AM 80.78 65.84 57.38 100.22 65.12 44.0 32.46 6.04 S 6.26 S 7.38 S No 0.000 No Precipitation 06/22/2022 02:12 AM 06/22/2022 02:19 AM 0.000 0.000 0.000 0.000 0.000 1.24 Clear
06/24/2022 08:58 AM 81.14 66.38 58.28 100.22 65.12 45.0 32.46 6.49 S 7.61 SE 8.05 SE No 0.000 No Precipitation 06/22/2022 02:12 AM 06/22/2022 02:19 AM 0.000 0.000 0.000 0.000 0.000 1.24 Clear
06/24/2022 08:59 AM 80.96 65.84 57.38 100.22 65.12 44.0 32.46 6.26 S 5.14 S 8.05 SE No 0.000 No Precipitation 06/22/2022 02:12 AM 06/22/2022 02:19 AM 0.000 0.000 0.000 0.000 0.000 1.24 Clear
06/24/2022 09:00 AM 80.78 66.02 57.56 100.22 65.12 45.0 32.46 5.37 S 4.92 S 8.05 SE No 0.000 No Precipitation 06/22/2022 02:12 AM 06/22/2022 02:19 AM 0.000 0.000 0.000 0.000 0.000 1.24 Clear
06/24/2022 09:01 AM 80.96 66.20 57.92 100.22 65.12 45.0 32.46 5.14 S 5.37 S 8.05 SE No 0.000 No Precipitation 06/22/2022 02:12 AM 06/22/2022 02:19 AM 0.000 0.000 0.000 0.000 0.000 1.24 Clear
06/24/2022 09:02 AM 80.96 66.20 58.10 100.22 65.12 45.0 32.46 5.37 S 6.49 S 8.05 SE No 0.000 No Precipitation 06/22/2022 02:12 AM 06/22/2022 02:19 AM 0.000 0.000 0.000 0.000 0.000 1.24 Clear
06/24/2022 09:03 AM 81.14 66.02 57.56 100.22 65.12 44.0 32.46 6.26 S 6.71 S 8.28 S No 0.000 No Precipitation 06/22/2022 02:12 AM 06/22/2022 02:19 AM 0.000 0.000 0.000 0.000 0.000 1.24 Clear
06/24/2022 09:04 AM 81.32 66.38 57.92 100.22 65.12 45.0 32.46 6.49 S 5.37 S 8.28 S No 0.000 No Precipitation 06/22/2022 02:12 AM 06/22/2022 02:19 AM 0.000 0.000 0.000 0.000 0.000 1.24 Clear
06/24/2022 09:05 AM 81.50 66.20 57.74 100.22 65.12 44.0 32.46 6.04 S 7.38 S 8.28 S No 0.000 No Precipitation 06/22/2022 02:12 AM 06/22/2022 02:19 AM 0.000 0.000 0.000 0.000 0.000 1.24 Clear
06/24/2022 09:06 AM 81.50 66.02 57.38 100.22 65.12 44.0 32.46 6.26 S 6.49 SE 8.28 S No 0.000 No Precipitation 06/22/2022 02:12 AM 06/22/2022 02:19 AM 0.000 0.000 0.000 0.000 0.000 1.24 Clear
06/24/2022 09:07 AM 81.32 65.48 57.38 100.22 65.12 43.0 32.46 5.82 S 4.03 S 8.28 S No 0.000 No Precipitation 06/22/2022 02:12 AM 06/22/2022 02:19 AM 0.000 0.000 0.000 0.000 0.000 1.24 Clear
06/24/2022 09:08 AM 81.14 65.48 56.48 100.22 65.12 43.0 32.46 5.14 SE 5.82 SE 8.28 S No 0.000 No Precipitation 06/22/2022 02:12 AM 06/22/2022 02:19 AM 0.000 0.000 0.000 0.000 0.000 1.24 Clear
06/24/2022 09:09 AM 80.96 66.02 57.74 100.22 65.12 45.0 32.46 5.82 S 8.50 S 8.50 S No 0.000 No Precipitation 06/22/2022 02:12 AM 06/22/2022 02:19 AM 0.000 0.000 0.000 0.000 0.000 1.24 Clear
06/24/2022 09:10 AM 81.14 66.02 57.74 100.22 65.12 45.0 32.46 6.71 S 7.16 S 8.72 S No 0.000 No Precipitation 06/22/2022 02:12 AM 06/22/2022 02:19 AM 0.000 0.000 0.000 0.000 0.000 1.24 Clear
06/24/2022 09:11 AM 81.32 65.12 55.76 100.22 65.12 41.0 32.46 6.93 S 7.61 S 8.72 S No 0.000 No Precipitation 06/22/2022 02:12 AM 06/22/2022 02:19 AM 0.000 0.000 0.000 0.000 0.000 1.24 Clear
06/24/2022 09:12 AM 81.68 64.94 55.04 100.22 65.12 40.0 32.46 7.38 S 7.16 S 8.72 S No 0.000 No Precipitation 06/22/2022 02:12 AM 06/22/2022 02:19 AM 0.000 0.000 0.000 0.000 0.000 1.24 Clear
06/24/2022 09:13 AM 81.86 65.66 56.30 100.22 65.12 41.0 32.46 7.38 S 8.95 S 8.95 S No 0.000 No Precipitation 06/22/2022 02:12 AM 06/22/2022 02:19 AM 0.000 0.000 0.000 0.000 0.000 1.24 Clear
06/24/2022 09:14 AM 82.22 65.30 55.40 100.22 65.12 40.0 32.46 7.61 S 8.05 S 8.95 S No 0.000 No Precipitation 06/22/2022 02:12 AM 06/22/2022 02:19 AM 0.000 0.000 0.000 0.000 0.000 1.24 Clear
06/24/2022 09:15 AM 81.86 64.58 54.14 100.22 65.12 38.0 32.46 7.61 S 5.37 S 8.95 S No 0.000 No Precipitation 06/22/2022 02:12 AM 06/22/2022 02:19 AM 0.000 0.000 0.000 0.000 0.000 1.24 Clear
06/24/2022 09:16 AM 81.68 65.12 55.22 100.22 65.12 40.0 32.46 6.49 S 5.82 SE 8.95 S No 0.000 No Precipitation 06/22/2022 02:12 AM 06/22/2022 02:19 AM 0.000 0.000 0.000 0.000 0.000 1.24 Clear
06/24/2022 09:17 AM 81.68 65.30 55.76 100.22 65.12 41.0 32.46 5.82 S 6.26 S 8.95 S No 0.000 No Precipitation 06/22/2022 02:12 AM 06/22/2022 02:19 AM 0.000 0.000 0.000 0.000 0.000 1.24 Clear
06/24/2022 09:18 AM 81.86 64.94 54.86 100.22 65.12 39.0 32.46 6.93 SE 7.83 SE 8.95 S No 0.000 No Precipitation 06/22/2022 02:12 AM 06/22/2022 02:19 AM 0.000 0.000 0.000 0.000 0.000 1.24 Clear
06/24/2022 09:19 AM 82.04 64.58 54.14 100.22 65.12 38.0 32.46 7.38 S 6.71 S 8.95 S No 0.000 No Precipitation 06/22/2022 02:12 AM 06/22/2022 02:19 AM 0.000 0.000 0.000 0.000 0.000 1.24 Clear
06/24/2022 09:20 AM 82.22 65.12 55.04 100.22 65.12 39.0 32.46 6.71 S 6.93 S 8.95 S No 0.000 No Precipitation 06/22/2022 02:12 AM 06/22/2022 02:19 AM 0.000 0.000 0.000 0.000 0.000 1.24 Clear
06/24/2022 09:21 AM 82.58 64.94 54.50 100.22 65.12 38.0 32.46 7.16 S 6.71 S 8.95 S No 0.000 No Precipitation 06/22/2022 02:12 AM 06/22/2022 02:19 AM 0.000 0.000 0.000 0.000 0.000 1.24 Clear
06/24/2022 09:22 AM 82.40 64.94 54.68 100.22 65.12 38.0 32.46 6.93 S 5.14 S 8.95 S No 0.000 No Precipitation 06/22/2022 02:12 AM 06/22/2022 02:19 AM 0.000 0.000 0.000 0.000 0.000 1.24 Clear
06/24/2022 09:23 AM 82.22 65.12 55.04 100.22 65.12 39.0 32.46 6.26 S 7.83 S 8.95 S No 0.000 No Precipitation 06/22/2022 02:12 AM 06/22/2022 02:19 AM 0.000 0.000 0.000 0.000 0.000 1.24 Clear
06/24/2022 09:24 AM 82.58 65.12 54.86 100.22 65.12 38.0 32.46 6.71 SE 6.71 SE 8.95 S No 0.000 No Precipitation 06/22/2022 02:12 AM 06/22/2022 02:19 AM 0.000 0.000 0.000 0.000 0.000 1.24 Clear
06/24/2022 09:25 AM 82.40 64.76 54.14 100.22 65.12 37.0 32.46 6.71 SE 5.82 SE 8.95 S No 0.000 No Precipitation 06/22/2022 02:12 AM 06/22/2022 02:19 AM 0.000 0.000 0.000 0.000 0.000 1.24 Clear
06/24/2022 09:26 AM 82.04 65.48 55.76 100.22 65.12 40.0 32.46 6.93 SE 6.93 SE 9.62 SE No 0.000 No Precipitation 06/22/2022 02:12 AM 06/22/2022 02:19 AM 0.000 0.000 0.000 0.000 0.000 1.24 Clear
06/24/2022 09:27 AM 82.04 64.76 54.50 100.22 65.12 38.0 32.46 6.93 SE 8.28 SE 9.62 SE No 0.000 No Precipitation 06/22/2022 02:12 AM 06/22/2022 02:19 AM 0.000 0.000 0.000 0.000 0.000 1.24 Clear
06/24/2022 09:28 AM 82.22 65.66 55.94 100.22 65.12 40.0 32.46 6.49 S 6.93 S 9.62 SE No 0.000 No Precipitation 06/22/2022 02:12 AM 06/22/2022 02:19 AM 0.000 0.000 0.000 0.000 0.000 1.24 Clear
06/24/2022 09:29 AM 82.22 65.12 54.86 100.22 65.12 39.0 32.46 6.49 S 6.26 S 9.62 SE No 0.000 No Precipitation 06/22/2022 02:12 AM 06/22/2022 02:19 AM 0.000 0.000 0.000 0.000 0.000 1.24 Clear
06/24/2022 09:30 AM 82.22 64.58 54.14 100.22 65.12 38.0 32.46 6.04 S 6.71 SE 9.62 SE No 0.000 No Precipitation 06/22/2022 02:12 AM 06/22/2022 02:19 AM 0.000 0.000 0.000 0.000 0.000 1.24 Clear
06/24/2022 09:31 AM 82.04 65.48 55.94 100.22 65.12 40.0 32.46 6.49 SE 6.26 SE 9.62 SE No 0.000 No Precipitation 06/22/2022 02:12 AM 06/22/2022 02:19 AM 0.000 0.000 0.000 0.000 0.000 1.24 Clear
06/24/2022 09:32 AM 82.04 64.94 54.68 100.22 65.12 39.0 32.46 7.38 SE 8.05 SE 9.62 SE No 0.000 No Precipitation 06/22/2022 02:12 AM 06/22/2022 02:19 AM 0.000 0.000 0.000 0.000 0.000 1.24 Clear
06/24/2022 09:33 AM 82.04 64.58 53.96 100.22 65.12 38.0 32.46 7.61 SE 5.14 SE 9.62 SE No 0.000 No Precipitation 06/22/2022 02:12 AM 06/22/2022 02:19 AM 0.000 0.000 0.000 0.000 0.000 1.24 Clear
06/24/2022 09:34 AM 81.68 64.58 54.32 100.22 65.12 39.0 32.46 6.49 SE 4.25 SE 9.62 SE No 0.000 No Precipitation 06/22/2022 02:12 AM 06/22/2022 02:19 AM 0.000 0.000 0.000 0.000 0.000 1.24 Clear
06/24/2022 09:35 AM 81.86 64.58 54.14 100.22 65.12 38.0 32.46 5.14 S 7.38 SE 9.62 SE No 0.000 No Precipitation 06/22/2022 02:12 AM 06/22/2022 02:19 AM 0.000 0.000 0.000 0.000 0.000 1.24 Clear
06/24/2022 09:36 AM 82.04 64.94 54.86 100.22 65.12 39.0 32.46 6.26 SE 6.49 SE 9.40 SE No 0.000 No Precipitation 06/22/2022 02:12 AM 06/22/2022 02:19 AM 0.000 0.000 0.000 0.000 0.000 1.24 Clear
06/24/2022 09:37 AM 82.22 65.12 55.04 100.22 65.12 39.0 32.46 6.93 SE 5.59 SE 9.40 SE No 0.000 No Precipitation 06/22/2022 02:12 AM 06/22/2022 02:19 AM 0.000 0.000 0.000 0.000 0.000 1.24 Clear
06/24/2022 09:38 AM 82.22 64.94 54.86 100.22 65.12 39.0 32.46 6.26 SE 5.82 S 9.40 SE No 0.000 No Precipitation 06/22/2022 02:12 AM 06/22/2022 02:19 AM 0.000 0.000 0.000 0.000 0.000 1.24 Clear
06/24/2022 09:39 AM 82.22 65.12 55.04 100.22 65.12 39.0 32.46 6.49 SE 7.38 SE 9.40 SE No 0.000 No Precipitation 06/22/2022 02:12 AM 06/22/2022 02:19 AM 0.000 0.000 0.000 0.000 0.000 1.24 Clear
06/24/2022 09:40 AM 82.40 65.48 55.40 100.22 65.12 39.0 32.46 7.38 SE 7.16 SE 9.40 SE No 0.000 No Precipitation 06/22/2022 02:12 AM 06/22/2022 02:19 AM 0.000 0.000 0.000 0.000 0.000 1.24 Clear
06/24/2022 09:41 AM 82.22 65.30 55.22 100.22 65.12 39.0 32.46 7.61 SE 8.05 SE 9.40 SE No 0.000 No Precipitation 06/22/2022 02:12 AM 06/22/2022 02:19 AM 0.000 0.000 0.000 0.000 0.000 1.24 Clear
06/24/2022 09:42 AM 82.04 64.58 53.96 100.22 65.12 38.0 32.46 7.38 SE 4.92 SE 9.40 SE No 0.000 No Precipitation 06/22/2022 02:12 AM 06/22/2022 02:19 AM 0.000 0.000 0.000 0.000 0.000 1.24 Clear
06/24/2022 09:43 AM 81.86 64.94 54.68 100.22 65.12 39.0 32.46 7.38 SE 5.37 SE 9.40 SE No 0.000 No Precipitation 06/22/2022 02:12 AM 06/22/2022 02:19 AM 0.000 0.000 0.000 0.000 0.000 1.24 Clear
06/24/2022 09:44 AM 82.04 64.94 54.86 100.22 65.12 39.0 32.46 7.16 SE 6.93 SE 9.40 SE No 0.000 No Precipitation 06/22/2022 02:12 AM 06/22/2022 02:19 AM 0.000 0.000 0.000 0.000 0.000 1.24 Clear
06/24/2022 09:45 AM x 64.40 53.24 100.22 65.12 36.0 32.46 6.93 SE 6.71 SE 9.40 SE No 0.000 No Precipitation 06/22/2022 02:12 AM 06/22/2022 02:19 AM 0.000 0.000 0.000 0.000 0.000 1.24 Clear
06/24/2022 09:46 AM 82.40 64.58 53.78 100.22 65.12 37.0 32.46 7.16 SE 7.61 SE 9.40 SE No 0.000 No Precipitation 06/22/2022 02:12 AM 06/22/2022 02:19 AM 0.000 0.000 0.000 0.000 0.000 1.24 Clear
06/24/2022 09:47 AM 82.40 64.40 53.24 100.22 65.12 36.0 32.46 6.49 SE 5.59 SE 9.40 SE No 0.000 No Precipitation 06/22/2022 02:12 AM 06/22/2022 02:19 AM 0.000 0.000 0.000 0.000 0.000 1.24 Clear
06/24/2022 09:48 AM 82.58 65.30 55.04 100.22 65.12 38.0 32.46 6.71 SE 6.71 SE 9.40 SE No 0.000 No Precipitation 06/22/2022 02:12 AM 06/22/2022 02:19 AM 0.000 0.000 0.000 0.000 0.000 1.24 Clear
06/24/2022 09:49 AM 82.76 65.48 55.40 100.22 65.12 39.0 32.46 6.93 SE 4.92 SE 9.40 SE No 0.000 No Precipitation 06/22/2022 02:12 AM 06/22/2022 02:19 AM 0.000 0.000 0.000